KJ6MC Weather Reports


time (UTC)temp
C
wind
direction
speed
KPH
gust
KPH
rain 1hr
cm
rain 24hr
cm
rain mn
cm
humidity
%
barometer
mb
20260901113006 13 129 3.2 6.4 0.00 0.00 0.00 84 1012.7
20260901112907 13 143 3.2 6.4 0.00 0.00 0.00 84 1012.7
20260901112821 13 133 3.2 6.4 0.00 0.00 0.00 84 1012.7
20260901112806 13 132 3.2 6.4 0.00 0.00 0.00 84 1012.7
20260901112707 13 135 3.2 6.4 0.00 0.00 0.00 84 1012.7
20260901112607 13 137 3.2 6.4 0.00 0.00 0.00 84 1012.8
20260901112505 13 125 3.2 6.4 0.00 0.00 0.00 84 1012.7
20260901112404 13 134 3.2 6.4 0.00 0.00 0.00 84 1012.8
20260901112322 13 134 3.2 6.4 0.00 0.00 0.00 84 1012.8
20260901112306 13 131 1.6 6.4 0.00 0.00 0.00 84 1012.8
20260901112202 13 129 1.6 6.4 0.00 0.00 0.00 84 1012.8
20260901112100 13 146 1.6 4.8 0.00 0.00 0.00 83 1012.7
20260901111954 13 136 1.6 8.0 0.00 0.00 0.00 83 1012.8
20260901111855 13 134 3.2 11.3 0.00 0.00 0.00 83 1012.7
20260901111820 13 134 3.2 11.3 0.00 0.00 0.00 83 1012.7
20260901111755 13 134 3.2 11.3 0.00 0.00 0.00 83 1012.8
20260901111654 13 136 3.2 11.3 0.00 0.00 0.00 83 1012.8
20260901111554 13 219 3.2 11.3 0.00 0.00 0.00 83 1012.7
20260901111454 13 218 3.2 11.3 0.00 0.00 0.00 83 1012.7
20260901111352 13 122 3.2 11.3 0.00 0.00 0.00 83 1012.7
20260901111319 13 123 3.2 11.3 0.00 0.00 0.00 83 1012.7
20260901111252 13 138 3.2 11.3 0.00 0.00 0.00 83 1012.7
20260901111151 13 123 4.8 11.3 0.00 0.00 0.00 83 1012.7
20260901111048 13 113 4.8 11.3 0.00 0.00 0.00 83 1012.7
20260901110942 13 154 4.8 9.7 0.00 0.00 0.00 83 1012.7
20260901110843 13 158 4.8 9.7 0.00 0.00 0.00 83 1012.6
20260901110820 13 137 4.8 9.7 0.00 0.00 0.00 83 1012.6
20260901110742 13 135 4.8 9.7 0.00 0.00 0.00 83 1012.7
20260901110642 13 136 4.8 9.7 0.00 0.00 0.00 83 1012.7
20260901110543 13 136 4.8 9.7 0.00 0.00 0.00 83 1012.7
20260901110436 13 148 4.8 9.7 0.00 0.00 0.00 82 1012.7
20260901110336 13 156 4.8 9.7 0.00 0.00 0.00 82 1012.7
20260901110321 13 150 4.8 9.7 0.00 0.00 0.00 82 1012.7
20260901110237 13 144 4.8 9.7 0.00 0.00 0.00 82 1012.7
20260901110137 13 155 4.8 9.7 0.00 0.00 0.00 83 1012.7
20260901105932 13 129 4.8 9.7 0.00 0.00 0.00 82 1012.7
20260901105830 13 121 4.8 9.7 0.00 0.00 0.00 82 1012.7
20260901105820 13 158 4.8 9.7 0.00 0.00 0.00 82 1012.7
20260901105730 13 141 4.8 9.7 0.00 0.00 0.00 82 1012.7
20260901105630 13 149 4.8 9.7 0.00 0.00 0.00 82 1012.7
20260901105531 13 167 4.8 9.7 0.00 0.00 0.00 82 1012.7
20260901105424 13 191 3.2 9.7 0.00 0.00 0.00 82 1012.7
20260901105330 13 141 3.2 9.7 0.00 0.00 0.00 82 1012.7
20260901105319 13 160 3.2 9.7 0.00 0.00 0.00 82 1012.7
20260901105224 13 141 3.2 9.7 0.00 0.00 0.00 82 1012.7
20260901105125 13 141 3.2 9.7 0.00 0.00 0.00 82 1012.7
20260901105026 13 111 3.2 11.3 0.00 0.00 0.00 82 1012.7
20260901104925 13 159 3.2 11.3 0.00 0.00 0.00 82 1012.7
20260901104829 13 138 3.2 11.3 0.00 0.00 0.00 82 1012.7
20260901104819 13 155 3.2 11.3 0.00 0.00 0.00 82 1012.7
20260901104725 13 129 3.2 11.3 0.00 0.00 0.00 82 1012.7
20260901104625 13 136 3.2 11.3 0.00 0.00 0.00 82 1012.7
20260901104525 13 148 3.2 11.3 0.00 0.00 0.00 82 1012.7
20260901104425 13 143 3.2 11.3 0.00 0.00 0.00 82 1012.7
20260901104319 13 132 3.2 11.3 0.00 0.00 0.00 83 1012.7
20260901104224 13 161 3.2 11.3 0.00 0.00 0.00 83 1012.6
20260901104124 13 141 3.2 11.3 0.00 0.00 0.00 83 1012.5
20260901104026 13 108 3.2 11.3 0.00 0.00 0.00 83 1012.5
20260901103925 13 116 3.2 11.3 0.00 0.00 0.00 82 1012.5
20260901103824 13 155 4.8 11.3 0.00 0.00 0.00 82 1012.5
20260901103723 13 143 3.2 11.3 0.00 0.00 0.00 82 1012.5
20260901103622 13 149 4.8 11.3 0.00 0.00 0.00 82 1012.5
20260901103524 13 125 4.8 11.3 0.00 0.00 0.00 82 1012.5
20260901103422 13 162 3.2 11.3 0.00 0.00 0.00 82 1012.5
20260901103324 13 122 3.2 11.3 0.00 0.00 0.00 82 1012.4
20260901103216 14 121 4.8 11.3 0.00 0.00 0.00 83 1012.4
20260901103116 13 143 4.8 11.3 0.00 0.00 0.00 83 1012.4
20260901103022 13 92 3.2 9.7 0.00 0.00 0.00 83 1012.4
20260901102916 13 134 4.8 9.7 0.00 0.00 0.00 83 1012.4
20260901102818 13 160 4.8 9.7 0.00 0.00 0.00 83 1012.4
20260901102712 13 150 4.8 9.7 0.00 0.00 0.00 83 1012.4
20260901102610 13 158 4.8 9.7 0.00 0.00 0.00 83 1012.4
20260901102510 13 148 4.8 9.7 0.00 0.00 0.00 83 1012.4
20260901102411 13 165 4.8 9.7 0.00 0.00 0.00 83 1012.4
20260901102315 13 131 4.8 9.7 0.00 0.00 0.00 83 1012.5
20260901102205 13 195 4.8 9.7 0.00 0.00 0.00 83 1012.5
20260901102104 13 136 3.2 9.7 0.00 0.00 0.00 83 1012.4
20260901102004 13 107 3.2 8.0 0.00 0.00 0.00 83 1012.4
20260901101905 13 134 3.2 8.0 0.00 0.00 0.00 83 1012.4
20260901101806 13 146 3.2 8.0 0.00 0.00 0.00 83 1012.4
20260901101704 13 136 3.2 8.0 0.00 0.00 0.00 83 1012.4
20260901101603 13 141 3.2 8.0 0.00 0.00 0.00 83 1012.4
20260901101502 13 139 3.2 8.0 0.00 0.00 0.00 83 1012.4
20260901101401 13 162 3.2 8.0 0.00 0.00 0.00 83 1012.4
20260901101304 13 162 3.2 8.0 0.00 0.00 0.00 84 1012.3
20260901101258 13 165 3.2 8.0 0.00 0.00 0.00 84 1012.3
20260901101156 13 124 3.2 9.7 0.00 0.00 0.00 84 1012.4
20260901101057 13 214 3.2 9.7 0.00 0.00 0.00 84 1012.4
20260901100956 13 127 3.2 9.7 0.00 0.00 0.00 84 1012.4
20260901100854 13 113 3.2 9.7 0.00 0.00 0.00 84 1012.5
20260901100802 13 111 3.2 9.7 0.00 0.00 0.00 84 1012.4
20260901100752 13 138 3.2 9.7 0.00 0.00 0.00 84 1012.4
20260901100653 13 121 4.8 9.7 0.00 0.00 0.00 84 1012.4
20260901100551 13 146 3.2 9.7 0.00 0.00 0.00 84 1012.5
20260901100451 13 95 3.2 9.7 0.00 0.00 0.00 84 1012.5
20260901100348 13 119 3.2 9.7 0.00 0.00 0.00 84 1012.6
20260901100301 13 127 3.2 9.7 0.00 0.00 0.00 84 1012.6
20260901100246 13 146 3.2 9.7 0.00 0.00 0.00 84 1012.6
20260901100140 13 146 3.2 8.0 0.00 0.00 0.00 84 1012.5
20260901100040 13 136 3.2 8.0 0.00 0.00 0.00 84 1012.6
20260901095940 13 136 3.2 8.0 0.00 0.00 0.00 84 1012.6
20260901095840 13 169 3.2 8.0 0.00 0.00 0.00 84 1012.6
20260901095759 13 100 3.2 8.0 0.00 0.00 0.00 84 1012.6
20260901095739 13 114 3.2 8.0 0.00 0.00 0.00 84 1012.6
20260901095635 13 110 3.2 8.0 0.00 0.00 0.00 84 1012.6
20260901095535 13 146 3.2 8.0 0.00 0.00 0.00 84 1012.7
20260901095434 13 139 3.2 8.0 0.00 0.00 0.00 84 1012.7
20260901095334 13 120 3.2 8.0 0.00 0.00 0.00 84 1012.6
20260901095300 13 214 3.2 8.0 0.00 0.00 0.00 84 1012.6
20260901095234 13 230 3.2 8.0 0.00 0.00 0.00 84 1012.6
20260901095132 13 86 3.2 8.0 0.00 0.00 0.00 84 1012.7
20260901095033 13 84 3.2 8.0 0.00 0.00 0.00 84 1012.6
20260901094932 13 142 3.2 8.0 0.00 0.00 0.00 84 1012.6
20260901094830 13 141 3.2 8.0 0.00 0.00 0.00 84 1012.7
20260901094800 13 130 3.2 8.0 0.00 0.00 0.00 84 1012.6
20260901094729 13 150 3.2 8.0 0.00 0.00 0.00 84 1012.6
20260901094625 13 139 3.2 8.0 0.00 0.00 0.00 84 1012.7
20260901094528 13 146 3.2 8.0 0.00 0.00 0.00 84 1012.6
20260901094519 13 145 3.2 8.0 0.00 0.00 0.00 84 1012.5
20260901094424 13 138 3.2 8.0 0.00 0.00 0.00 84 1012.6
20260901094414 13 117 3.2 8.0 0.00 0.00 0.00 84 1012.6
20260901094222 13 155 3.2 8.0 0.00 0.00 0.00 84 1012.6
20260901094116 13 211 3.2 8.0 0.00 0.00 0.00 84 1012.6
20260901094021 13 100 3.2 8.0 0.00 0.00 0.00 84 1012.5
20260901093916 13 103 3.2 8.0 0.00 0.00 0.00 84 1012.5
20260901093816 13 143 3.2 8.0 0.00 0.00 0.00 84 1012.5
20260901093800 13 107 3.2 8.0 0.00 0.00 0.00 84 1012.6
20260901093716 13 117 3.2 8.0 0.00 0.00 0.00 84 1012.5
20260901093611 13 141 3.2 8.0 0.00 0.00 0.00 84 1012.5
20260901093531 13 150 3.2 8.0 0.00 0.00 0.00 84 1012.5
20260901093512 13 136 3.2 8.0 0.00 0.00 0.00 84 1012.5
20260901093435 13 141 3.2 8.0 0.00 0.00 0.00 84 1012.5
20260901093426 13 150 3.2 8.0 0.00 0.00 0.00 84 1012.5
20260901093210 13 191 3.2 8.0 0.00 0.00 0.00 84 1012.5
20260901093105 13 107 3.2 8.0 0.00 0.00 0.00 84 1012.5
20260901093004 13 96 3.2 8.0 0.00 0.00 0.00 84 1012.5
20260901092904 13 117 3.2 8.0 0.00 0.00 0.00 84 1012.5
20260901092810 13 139 3.2 8.0 0.00 0.00 0.00 84 1012.5
20260901092759 13 129 3.2 8.0 0.00 0.00 0.00 84 1012.5
20260901092705 13 124 3.2 8.0 0.00 0.00 0.00 84 1012.5
20260901092604 13 105 3.2 8.0 0.00 0.00 0.00 84 1012.5
20260901092503 13 104 3.2 8.0 0.00 0.00 0.00 84 1012.5
20260901092402 13 104 3.2 8.0 0.00 0.00 0.00 84 1012.5
20260901092300 13 165 3.2 8.0 0.00 0.00 0.00 84 1012.4
20260901092159 13 107 3.2 8.0 0.00 0.00 0.00 84 1012.5
20260901092053 13 114 3.2 8.0 0.00 0.00 0.00 84 1012.5
20260901091952 13 116 3.2 8.0 0.00 0.00 0.00 84 1012.5
20260901091852 13 114 3.2 8.0 0.00 0.00 0.00 84 1012.5
20260901091759 13 132 3.2 8.0 0.00 0.00 0.00 84 1012.6
20260901091753 13 121 3.2 8.0 0.00 0.00 0.00 84 1012.6
20260901091652 13 154 3.2 8.0 0.00 0.00 0.00 84 1012.5
20260901091548 13 115 3.2 8.0 0.00 0.00 0.00 84 1012.5
20260901091448 13 113 3.2 8.0 0.00 0.00 0.00 84 1012.6
20260901091348 13 129 3.2 8.0 0.00 0.00 0.00 84 1012.6
20260901091258 13 101 3.2 8.0 0.00 0.00 0.00 84 1012.6
20260901091248 13 158 3.2 8.0 0.00 0.00 0.00 84 1012.6
20260901091146 13 111 3.2 8.0 0.00 0.00 0.00 84 1012.6
20260901091042 13 135 1.6 8.0 0.00 0.00 0.00 84 1012.6
20260901090940 13 148 1.6 8.0 0.00 0.00 0.00 84 1012.7
20260901090840 13 110 1.6 8.0 0.00 0.00 0.00 84 1012.6
20260901090758 13 140 1.6 8.0 0.00 0.00 0.00 84 1012.6
20260901090741 13 141 1.6 8.0 0.00 0.00 0.00 84 1012.6
20260901090640 13 148 1.6 8.0 0.00 0.00 0.00 84 1012.6
20260901090536 13 155 1.6 8.0 0.00 0.00 0.00 84 1012.7
20260901090435 13 157 3.2 8.0 0.00 0.00 0.00 84 1012.7
20260901090334 13 115 1.6 8.0 0.00 0.00 0.00 84 1012.7
20260901090258 13 93 1.6 8.0 0.00 0.00 0.00 84 1012.7
20260901090234 13 93 1.6 8.0 0.00 0.00 0.00 83 1012.7
20260901090135 13 150 3.2 8.0 0.00 0.00 0.00 83 1012.7
20260901090032 13 141 3.2 8.0 0.00 0.00 0.00 83 1012.7
20260901085932 13 154 3.2 8.0 0.00 0.00 0.00 83 1012.7
20260901085832 13 91 3.2 4.8 0.00 0.00 0.00 83 1012.7
20260901085757 13 97 3.2 8.0 0.00 0.00 0.00 83 1012.7
20260901085732 13 105 3.2 8.0 0.00 0.00 0.00 83 1012.7
20260901085633 13 104 3.2 8.0 0.00 0.00 0.00 83 1012.7
20260901085525 13 88 3.2 12.9 0.00 0.00 0.00 83 1012.7
20260901085422 13 138 3.2 12.9 0.00 0.00 0.00 83 1012.7
20260901085323 13 121 3.2 12.9 0.00 0.00 0.00 83 1012.7
20260901085257 14 218 3.2 12.9 0.00 0.00 0.00 83 1012.7
20260901085221 14 115 3.2 12.9 0.00 0.00 0.00 83 1012.7
20260901085119 14 110 3.2 12.9 0.00 0.00 0.00 83 1012.7
20260901085012 14 162 3.2 12.9 0.00 0.00 0.00 83 1012.7
20260901084912 14 131 3.2 12.9 0.00 0.00 0.00 83 1012.7
20260901084813 14 138 3.2 12.9 0.00 0.00 0.00 83 1012.7
20260901084752 14 129 3.2 12.9 0.00 0.00 0.00 83 1012.7
20260901084712 14 138 4.8 12.9 0.00 0.00 0.00 83 1012.7
20260901084612 14 155 4.8 11.3 0.00 0.00 0.00 83 1012.7
20260901084511 14 155 3.2 11.3 0.00 0.00 0.00 83 1012.7
20260901084410 14 161 3.2 11.3 0.00 0.00 0.00 83 1012.7
20260901084310 14 124 3.2 11.3 0.00 0.00 0.00 83 1012.7
20260901084246 14 169 3.2 11.3 0.00 0.00 0.00 83 1012.7
20260901084209 14 120 4.8 11.3 0.00 0.00 0.00 83 1012.7
20260901084107 14 152 3.2 11.3 0.00 0.00 0.00 83 1012.7
20260901084000 14 144 4.8 11.3 0.00 0.00 0.00 83 1012.7
20260901083901 14 150 4.8 11.3 0.00 0.00 0.00 83 1012.7
20260901083800 14 141 4.8 12.9 0.00 0.00 0.00 83 1012.7
20260901083739 14 146 4.8 12.9 0.00 0.00 0.00 83 1012.7
20260901083700 14 146 4.8 12.9 0.00 0.00 0.00 83 1012.7
20260901083601 14 120 4.8 12.9 0.00 0.00 0.00 83 1012.7
20260901083459 14 120 4.8 12.9 0.00 0.00 0.00 83 1012.7
20260901083358 14 131 4.8 12.9 0.00 0.00 0.00 83 1012.7
20260901083256 14 146 4.8 12.9 0.00 0.00 0.00 83 1012.8
20260901083233 14 99 4.8 12.9 0.00 0.00 0.00 83 1012.8
20260901083156 14 155 4.8 12.9 0.00 0.00 0.00 83 1012.7
20260901083054 14 151 4.8 12.9 0.00 0.00 0.00 83 1012.7
20260901082948 14 145 4.8 12.9 0.00 0.00 0.00 83 1012.7
20260901082848 14 136 4.8 12.9 0.00 0.00 0.00 83 1012.7
20260901082749 14 155 4.8 11.3 0.00 0.00 0.00 83 1012.7
20260901082728 14 104 4.8 11.3 0.00 0.00 0.00 83 1012.7
20260901082648 14 148 3.2 11.3 0.00 0.00 0.00 83 1012.6
20260901082549 14 145 4.8 11.3 0.00 0.00 0.00 83 1012.6
20260901082444 14 169 4.8 11.3 0.00 0.00 0.00 83 1012.6
20260901082345 14 135 4.8 11.3 0.00 0.00 0.00 83 1012.6
20260901082244 14 143 4.8 11.3 0.00 0.00 0.00 83 1012.5
20260901082221 14 99 4.8 11.3 0.00 0.00 0.00 83 1012.5
20260901082144 14 125 4.8 11.3 0.00 0.00 0.00 83 1012.5
20260901082043 14 150 4.8 11.3 0.00 0.00 0.00 83 1012.6
20260901081945 14 125 4.8 11.3 0.00 0.00 0.00 83 1012.6
20260901081936 14 78 4.8 11.3 0.00 0.00 0.00 83 1012.6
20260901081837 14 146 4.8 11.3 0.00 0.00 0.00 83 1012.5
20260901081825 14 149 4.8 11.3 0.00 0.00 0.00 83 1012.5
20260901081636 14 154 4.8 11.3 0.00 0.00 0.00 83 1012.6
20260901081537 14 132 4.8 11.3 0.00 0.00 0.00 83 1012.5
20260901081430 14 145 4.8 11.3 0.00 0.00 0.00 83 1012.6
20260901081330 14 141 4.8 11.3 0.00 0.00 0.00 83 1012.6
20260901081230 14 154 4.8 12.9 0.00 0.00 0.00 83 1012.6
20260901081210 14 131 4.8 12.9 0.00 0.00 0.00 83 1012.6
20260901081130 14 146 4.8 12.9 0.00 0.00 0.00 83 1012.6
20260901081030 13 137 4.8 12.9 0.00 0.00 0.00 83 1012.6
20260901080926 13 172 4.8 12.9 0.00 0.00 0.00 83 1012.6
20260901080826 13 150 4.8 12.9 0.00 0.00 0.00 84 1012.5
20260901080726 13 131 4.8 12.9 0.00 0.00 0.00 83 1012.6
20260901080709 13 121 4.8 12.9 0.00 0.00 0.00 83 1012.5
20260901080626 13 138 4.8 12.9 0.00 0.00 0.00 83 1012.5
20260901080525 13 132 4.8 12.9 0.00 0.00 0.00 83 1012.6
20260901080418 13 182 4.8 12.9 0.00 0.00 0.00 83 1012.6
20260901080318 13 158 4.8 12.9 0.00 0.00 0.00 83 1012.6
20260901080218 13 146 4.8 11.3 0.00 0.00 0.00 83 1012.6
20260901080208 13 205 4.8 11.3 0.00 0.00 0.00 83 1012.6
20260901080118 13 135 4.8 11.3 0.00 0.00 0.00 83 1012.6
20260901080017 13 158 4.8 11.3 0.00 0.00 0.00 83 1012.5
20260901075912 13 143 4.8 11.3 0.00 0.00 0.00 83 1012.5
20260901075812 14 148 3.2 11.3 0.00 0.00 0.00 83 1012.4
20260901075722 14 146 3.2 11.3 0.00 0.00 0.00 83 1012.5
20260901075712 14 148 3.2 11.3 0.00 0.00 0.00 83 1012.5
20260901075612 14 115 3.2 11.3 0.00 0.00 0.00 83 1012.5
20260901075513 14 150 3.2 11.3 0.00 0.00 0.00 83 1012.5
20260901075408 14 134 3.2 11.3 0.00 0.00 0.00 83 1012.4
20260901075309 14 131 3.2 11.3 0.00 0.00 0.00 83 1012.4
20260901075212 14 174 3.2 11.3 0.00 0.00 0.00 83 1012.4
20260901075206 14 173 3.2 11.3 0.00 0.00 0.00 83 1012.4
20260901075107 14 129 3.2 11.3 0.00 0.00 0.00 83 1012.4
20260901075006 14 139 3.2 8.0 0.00 0.00 0.00 83 1012.4
20260901074935 14 136 3.2 11.3 0.00 0.00 0.00 83 1012.4
20260901074901 14 140 3.2 11.3 0.00 0.00 0.00 83 1012.4
20260901074816 14 144 3.2 11.3 0.00 0.00 0.00 83 1012.4
20260901074700 14 146 3.2 11.3 0.00 0.00 0.00 83 1012.4
20260901074601 14 138 3.2 11.3 0.00 0.00 0.00 83 1012.4
20260901074500 14 136 3.2 11.3 0.00 0.00 0.00 83 1012.4
20260901074356 14 164 4.8 11.3 0.00 0.00 0.00 83 1012.4
20260901074256 14 148 4.8 11.3 0.00 0.00 0.00 83 1012.3
20260901074206 14 117 4.8 11.3 0.00 0.00 0.00 83 1012.3
20260901074156 14 139 4.8 11.3 0.00 0.00 0.00 83 1012.3
20260901074056 14 166 4.8 11.3 0.00 0.00 0.00 83 1012.3
20260901073953 14 89 4.8 11.3 0.00 0.00 0.00 83 1012.3
20260901073853 14 150 4.8 9.7 0.00 0.00 0.00 83 1012.4
20260901073752 14 139 4.8 9.7 0.00 0.00 0.00 83 1012.3
20260901073706 14 144 4.8 9.7 0.00 0.00 0.00 83 1012.3
20260901073653 14 148 4.8 9.7 0.00 0.00 0.00 83 1012.3
20260901073558 14 134 4.8 9.7 0.00 0.00 0.00 83 1012.3
20260901073452 14 139 4.8 9.7 0.00 0.00 0.00 83 1012.4
20260901073342 14 130 4.8 9.7 0.00 0.00 0.00 83 1012.4
20260901073242 14 148 4.8 9.7 0.00 0.00 0.00 83 1012.3
20260901073203 14 167 4.8 9.7 0.00 0.00 0.00 83 1012.4
20260901073143 14 104 4.8 9.7 0.00 0.00 0.00 83 1012.4
20260901073044 14 141 3.2 9.7 0.00 0.00 0.00 83 1012.3
20260901072942 14 221 3.2 9.7 0.00 0.00 0.00 83 1012.4
20260901072840 14 165 3.2 9.7 0.00 0.00 0.00 83 1012.4
20260901072740 14 150 3.2 9.7 0.00 0.00 0.00 83 1012.4
20260901072704 14 146 3.2 9.7 0.00 0.00 0.00 83 1012.4
20260901072640 14 141 3.2 9.7 0.00 0.00 0.00 82 1012.4
20260901072539 14 127 3.2 9.7 0.00 0.00 0.00 82 1012.4
20260901072436 14 158 3.2 9.7 0.00 0.00 0.00 82 1012.4
20260901072332 14 144 3.2 11.3 0.00 0.00 0.00 82 1012.3
20260901072230 14 138 3.2 11.3 0.00 0.00 0.00 82 1012.4
20260901072203 14 139 3.2 11.3 0.00 0.00 0.00 82 1012.4
20260901072130 14 145 3.2 11.3 0.00 0.00 0.00 82 1012.4
20260901072030 14 128 3.2 11.3 0.00 0.00 0.00 82 1012.4
20260901071930 14 146 4.8 11.3 0.00 0.00 0.00 82 1012.4
20260901071824 14 136 4.8 11.3 0.00 0.00 0.00 82 1012.4
20260901071725 14 139 4.8 11.3 0.00 0.00 0.00 82 1012.4
20260901071701 14 136 3.2 11.3 0.00 0.00 0.00 82 1012.3
20260901071624 14 150 3.2 11.3 0.00 0.00 0.00 82 1012.3
20260901071525 14 142 3.2 11.3 0.00 0.00 0.00 82 1012.4
20260901071429 14 146 4.8 11.3 0.00 0.00 0.00 82 1012.3
20260901071423 14 134 4.8 11.3 0.00 0.00 0.00 82 1012.3
20260901071325 14 125 4.8 11.3 0.00 0.00 0.00 82 1012.3
20260901071312 14 148 4.8 11.3 0.00 0.00 0.00 82 1012.3
20260901071119 14 136 4.8 11.3 0.00 0.00 0.00 82 1012.3
20260901071021 14 134 4.8 11.3 0.00 0.00 0.00 82 1012.3
20260901070918 14 132 3.2 9.7 0.00 0.00 0.00 82 1012.3
20260901070813 14 214 3.2 9.7 0.00 0.00 0.00 82 1012.3
20260901070713 14 127 4.8 9.7 0.00 0.00 0.00 82 1012.3
20260901070701 14 146 4.8 9.7 0.00 0.00 0.00 82 1012.3
20260901070612 14 146 3.2 9.7 0.00 0.00 0.00 82 1012.3
20260901070515 14 141 3.2 9.7 0.00 0.00 0.00 81 1012.4
20260901070412 15 122 3.2 9.7 0.00 0.00 0.00 81 1012.4
20260901070312 15 100 3.2 8.0 0.00 0.00 0.00 81 1012.4
20260901070215 15 148 3.2 8.0 0.00 0.00 0.00 81 1012.4
20260901070201 15 175 3.2 8.0 0.00 0.00 0.00 81 1012.4
20260901070114 15 139 3.2 8.0 0.00 0.00 0.00 81 1012.4
20260901070017 15 149 3.2 8.0 0.00 0.00 0.00 81 1012.4
20260901065925 15 199 3.2 8.0 0.00 0.00 0.00 81 1012.4
20260901065910 15 149 3.2 8.0 0.00 0.00 0.00 81 1012.4
20260901065811 15 143 3.2 8.0 0.00 0.00 0.00 81 1012.4
20260901065711 15 200 3.2 8.0 0.00 0.00 0.00 81 1012.4
20260901065609 15 139 4.8 12.9 0.00 0.00 0.00 80 1012.3
20260901065506 15 168 4.8 12.9 0.00 0.00 0.00 80 1012.3
20260901065407 15 168 3.2 12.9 0.00 0.00 0.00 80 1012.4
20260901065306 15 155 3.2 12.9 0.00 0.00 0.00 80 1012.3
20260901065212 15 201 3.2 12.9 0.00 0.00 0.00 80 1012.3
20260901065059 15 143 4.8 12.9 0.00 0.00 0.00 80 1012.3
20260901064959 15 167 4.8 12.9 0.00 0.00 0.00 80 1012.3
20260901064859 15 139 4.8 12.9 0.00 0.00 0.00 80 1012.3
20260901064758 15 99 4.8 12.9 0.00 0.00 0.00 80 1012.3
20260901064659 15 152 4.8 12.9 0.00 0.00 0.00 80 1012.3
20260901064554 15 130 4.8 9.7 0.00 0.00 0.00 80 1012.3
20260901064455 15 146 4.8 11.3 0.00 0.00 0.00 80 1012.3
20260901064353 15 129 4.8 11.3 0.00 0.00 0.00 80 1012.4
20260901064253 15 179 4.8 11.3 0.00 0.00 0.00 80 1012.4
20260901064153 15 129 4.8 11.3 0.00 0.00 0.00 80 1012.3
20260901064046 15 120 4.8 11.3 0.00 0.00 0.00 80 1012.3
20260901063946 15 158 4.8 11.3 0.00 0.00 0.00 80 1012.3
20260901063847 15 113 4.8 11.3 0.00 0.00 0.00 80 1012.3
20260901063746 15 143 4.8 11.3 0.00 0.00 0.00 80 1012.3
20260901063648 15 204 4.8 11.3 0.00 0.00 0.00 80 1012.3
20260901063541 15 172 4.8 11.3 0.00 0.00 0.00 80 1012.3
20260901063441 15 141 4.8 11.3 0.00 0.00 0.00 80 1012.3
20260901063341 15 132 4.8 12.9 0.00 0.00 0.00 80 1012.3
20260901063240 15 159 4.8 12.9 0.00 0.00 0.00 80 1012.3
20260901063141 15 129 4.8 12.9 0.00 0.00 0.00 79 1012.4
20260901063036 15 110 4.8 12.9 0.00 0.00 0.00 79 1012.3
20260901062935 15 193 4.8 12.9 0.00 0.00 0.00 79 1012.3
20260901062835 15 155 4.8 12.9 0.00 0.00 0.00 79 1012.3
20260901062734 15 136 4.8 12.9 0.00 0.00 0.00 79 1012.4
20260901062636 15 144 4.8 12.9 0.00 0.00 0.00 79 1012.3
20260901062532 15 191 4.8 12.9 0.00 0.00 0.00 79 1012.3
20260901062431 15 113 4.8 12.9 0.00 0.00 0.00 79 1012.3
20260901062331 15 145 3.2 9.7 0.00 0.00 0.00 79 1012.3
20260901062231 15 195 3.2 9.7 0.00 0.00 0.00 79 1012.3
20260901062138 15 166 3.2 9.7 0.00 0.00 0.00 79 1012.3
20260901062032 15 204 3.2 9.7 0.00 0.00 0.00 79 1012.3
20260901061925 15 121 3.2 9.7 0.00 0.00 0.00 79 1012.3
20260901061829 15 142 3.2 9.7 0.00 0.00 0.00 79 1012.3
20260901061723 15 221 3.2 9.7 0.00 0.00 0.00 80 1012.4
20260901061624 15 207 3.2 9.7 0.00 0.00 0.00 80 1012.4
20260901061518 15 179 3.2 9.7 0.00 0.00 0.00 80 1012.3
20260901061420 15 145 3.2 8.0 0.00 0.00 0.00 80 1012.4
20260901061317 15 214 4.8 8.0 0.00 0.00 0.00 79 1012.4
20260901061217 15 128 4.8 8.0 0.00 0.00 0.00 79 1012.4
20260901061118 15 110 4.8 8.0 0.00 0.00 0.00 79 1012.4
20260901061011 15 135 3.2 8.0 0.00 0.00 0.00 79 1012.3
20260901060910 15 300 4.8 8.0 0.00 0.00 0.00 80 1012.4
20260901060810 15 188 3.2 8.0 0.00 0.00 0.00 80 1012.4
20260901060710 15 150 3.2 8.0 0.00 0.00 0.00 80 1012.4
20260901060611 15 210 3.2 8.0 0.00 0.00 0.00 80 1012.4
20260901060508 15 222 3.2 8.0 0.00 0.00 0.00 80 1012.4
20260901060406 15 201 3.2 8.0 0.00 0.00 0.00 80 1012.3
20260901060306 15 207 3.2 6.4 0.00 0.00 0.00 80 1012.3
20260901060207 15 198 3.2 6.4 0.00 0.00 0.00 80 1012.3
20260901060118 15 142 3.2 16.1 0.00 0.00 0.00 80 1012.3
20260901060000 15 111 3.2 16.1 0.00 0.00 0.00 80 1012.3
20260901055858 15 229 3.2 16.1 0.00 0.00 0.00 80 1012.3
20260901055759 15 123 3.2 16.1 0.00 0.00 0.00 80 1012.3
20260901055659 15 205 3.2 16.1 0.00 0.00 0.00 80 1012.3
20260901055607 15 256 3.2 16.1 0.00 0.00 0.00 80 1012.3
20260901055504 15 158 3.2 16.1 0.00 0.00 0.00 80 1012.3
20260901055401 15 144 3.2 16.1 0.00 0.00 0.00 80 1012.3
20260901055307 15 201 3.2 16.1 0.00 0.00 0.00 80 1012.3
20260901055159 15 204 3.2 16.1 0.00 0.00 0.00 80 1012.3
20260901055058 15 127 3.2 8.0 0.00 0.00 0.00 80 1012.3
20260901054955 15 228 3.2 8.0 0.00 0.00 0.00 80 1012.3
20260901054900 15 238 3.2 8.0 0.00 0.00 0.00 80 1012.2
20260901054757 15 198 3.2 8.0 0.00 0.00 0.00 80 1012.2
20260901054654 15 154 1.6 8.0 0.00 0.00 0.00 80 1012.3
20260901054551 15 225 1.6 8.0 0.00 0.00 0.00 80 1012.3
20260901054441 15 131 1.6 6.4 0.00 0.00 0.00 80 1012.3
20260901054340 15 186 1.6 6.4 0.00 0.00 0.00 80 1012.3
20260901054241 15 125 1.6 8.0 0.00 0.00 0.00 80 1012.2
20260901054141 15 150 1.6 8.0 0.00 0.00 0.00 80 1012.2
20260901054042 15 139 3.2 8.0 0.00 0.00 0.00 80 1012.1
20260901053935 15 164 3.2 8.0 0.00 0.00 0.00 80 1012.1
20260901053835 15 129 3.2 8.0 0.00 0.00 0.00 80 1012.1
20260901053735 15 129 3.2 8.0 0.00 0.00 0.00 80 1012.1
20260901053634 15 232 3.2 9.7 0.00 0.00 0.00 80 1012.1
20260901053537 15 214 3.2 9.7 0.00 0.00 0.00 79 1012.1
20260901053428 15 135 4.8 9.7 0.00 0.00 0.00 79 1012.1
20260901053328 15 136 3.2 9.7 0.00 0.00 0.00 79 1012.1
20260901053251 15 158 3.2 9.7 0.00 0.00 0.00 79 1012.1
20260901053229 15 162 3.2 9.7 0.00 0.00 0.00 79 1012.1
20260901053144 15 200 3.2 9.7 0.00 0.00 0.00 79 1012.1
20260901053134 15 158 3.2 9.7 0.00 0.00 0.00 79 1012.1
20260901052927 15 222 3.2 9.7 0.00 0.00 0.00 79 1012.1
20260901052826 15 208 4.8 9.7 0.00 0.00 0.00 79 1012.1
20260901052725 15 224 3.2 9.7 0.00 0.00 0.00 79 1012.1
20260901052630 15 228 3.2 9.7 0.00 0.00 0.00 79 1012.2
20260901052524 15 146 4.8 9.7 0.00 0.00 0.00 79 1012.2
20260901052416 15 116 4.8 9.7 0.00 0.00 0.00 79 1012.2
20260901052317 15 225 4.8 9.7 0.00 0.00 0.00 79 1012.3
20260901052216 15 188 4.8 9.7 0.00 0.00 0.00 79 1012.3
20260901052117 15 141 4.8 9.7 0.00 0.00 0.00 79 1012.3
20260901052018 15 236 4.8 9.7 0.00 0.00 0.00 79 1012.2
20260901051911 15 219 3.2 9.7 0.00 0.00 0.00 79 1012.1
20260901051811 15 207 3.2 9.7 0.00 0.00 0.00 79 1012.1
20260901051738 15 219 3.2 8.0 0.00 0.00 0.00 79 1012.2
20260901051717 15 211 3.2 9.7 0.00 0.00 0.00 79 1012.1
20260901051629 15 226 3.2 8.0 0.00 0.00 0.00 79 1012.1
20260901051619 15 219 3.2 8.0 0.00 0.00 0.00 79 1012.2
20260901051411 15 233 3.2 8.0 0.00 0.00 0.00 79 1012.1
20260901051308 16 212 3.2 8.0 0.00 0.00 0.00 79 1012.1
20260901051209 16 229 4.8 11.3 0.00 0.00 0.00 79 1012.1
20260901051107 16 168 4.8 11.3 0.00 0.00 0.00 78 1012.1
20260901051005 16 121 4.8 11.3 0.00 0.00 0.00 78 1012.1
20260901050859 16 212 4.8 16.1 0.00 0.00 0.00 78 1012.2
20260901050759 16 201 6.4 16.1 0.00 0.00 0.00 78 1012.1
20260901050725 16 218 6.4 16.1 0.00 0.00 0.00 78 1012.2
20260901050658 16 143 6.4 16.1 0.00 0.00 0.00 78 1012.1
20260901050614 16 150 6.4 16.1 0.00 0.00 0.00 78 1012.2
20260901050604 16 218 6.4 16.1 0.00 0.00 0.00 78 1012.2
20260901050354 16 136 6.4 16.1 0.00 0.00 0.00 78 1012.1
20260901050256 16 169 4.8 16.1 0.00 0.00 0.00 78 1012.1
20260901050155 16 207 6.4 16.1 0.00 0.00 0.00 78 1012.0
20260901050055 16 193 6.4 16.1 0.00 0.00 0.00 78 1012.0
20260901045954 16 245 6.4 16.1 0.00 0.00 0.00 78 1012.0
20260901045846 16 219 6.4 17.7 0.00 0.00 0.00 78 1012.0
20260901045747 16 205 6.4 19.3 0.00 0.00 0.00 78 1012.0
20260901045708 16 158 6.4 19.3 0.00 0.00 0.00 78 1012.0
20260901045646 16 231 6.4 19.3 0.00 0.00 0.00 78 1012.0
20260901045602 16 169 6.4 19.3 0.00 0.00 0.00 77 1012.0
20260901045552 16 158 6.4 19.3 0.00 0.00 0.00 78 1012.0
20260901045345 16 219 6.4 19.3 0.00 0.00 0.00 77 1012.1
20260901045242 16 246 8.0 19.3 0.00 0.00 0.00 77 1012.0
20260901045145 16 232 6.4 19.3 0.00 0.00 0.00 77 1012.0
20260901045045 16 154 6.4 19.3 0.00 0.00 0.00 77 1012.0
20260901044835 16 255 6.4 19.3 0.00 0.00 0.00 77 1012.1
20260901044735 16 218 6.4 14.5 0.00 0.00 0.00 77 1012.0
20260901044652 16 143 8.0 17.7 0.00 0.00 0.00 77 1012.0
20260901044635 16 179 6.4 17.7 0.00 0.00 0.00 77 1012.0
20260901044550 16 236 6.4 17.7 0.00 0.00 0.00 77 1012.0
20260901044540 16 143 8.0 17.7 0.00 0.00 0.00 77 1012.0
20260901044329 16 207 8.0 22.5 0.00 0.00 0.00 77 1011.9
20260901044229 16 212 8.0 22.5 0.00 0.00 0.00 77 1011.9
20260901044150 16 248 8.0 22.5 0.00 0.00 0.00 77 1012.0
20260901044128 16 203 8.0 22.5 0.00 0.00 0.00 77 1012.0
20260901044045 16 230 8.0 22.5 0.00 0.00 0.00 77 1011.9
20260901044034 16 248 8.0 22.5 0.00 0.00 0.00 77 1012.0
20260901043823 16 204 8.0 22.5 0.00 0.00 0.00 77 1012.0
20260901043722 16 243 8.0 22.5 0.00 0.00 0.00 77 1011.9
20260901043641 16 220 6.4 22.5 0.00 0.00 0.00 77 1012.0
20260901043623 16 210 8.0 22.5 0.00 0.00 0.00 77 1011.9
20260901043549 16 190 8.0 22.5 0.00 0.00 0.00 77 1012.0
20260901043528 16 220 6.4 22.5 0.00 0.00 0.00 77 1012.0
20260901043317 16 248 6.4 19.3 0.00 0.00 0.00 77 1012.0
20260901043216 16 163 6.4 19.3 0.00 0.00 0.00 76 1011.9
20260901043117 16 276 6.4 19.3 0.00 0.00 0.00 76 1012.0
20260901043018 16 153 6.4 19.3 0.00 0.00 0.00 76 1012.0
20260901042918 16 146 6.4 19.3 0.00 0.00 0.00 76 1011.9
20260901042812 16 204 6.4 19.3 0.00 0.00 0.00 76 1011.9
20260901042711 16 205 6.4 19.3 0.00 0.00 0.00 76 1012.0
20260901042610 16 212 6.4 19.3 0.00 0.00 0.00 76 1011.9
20260901042515 16 239 6.4 19.3 0.00 0.00 0.00 76 1011.9
20260901042411 16 212 6.4 19.3 0.00 0.00 0.00 76 1011.9
20260901042307 16 158 8.0 14.5 0.00 0.00 0.00 76 1011.9
20260901042211 16 141 8.0 19.3 0.00 0.00 0.00 76 1011.9
20260901042109 16 235 8.0 22.5 0.00 0.00 0.00 76 1011.8
20260901042005 16 154 9.7 22.5 0.00 0.00 0.00 76 1011.8
20260901041905 16 214 9.7 22.5 0.00 0.00 0.00 76 1011.8
20260901041800 16 187 9.7 22.5 0.00 0.00 0.00 76 1011.8
20260901041701 16 230 9.7 22.5 0.00 0.00 0.00 76 1011.8
20260901041601 16 154 9.7 22.5 0.00 0.00 0.00 76 1011.7
20260901041501 16 211 9.7 22.5 0.00 0.00 0.00 76 1011.7
20260901041359 16 239 9.7 22.5 0.00 0.00 0.00 76 1011.7
20260901041255 16 226 9.7 22.5 0.00 0.00 0.00 76 1011.7
20260901041152 16 232 8.0 22.5 0.00 0.00 0.00 76 1011.7
20260901041053 16 243 9.7 19.3 0.00 0.00 0.00 76 1011.7
20260901040952 16 150 9.7 19.3 0.00 0.00 0.00 76 1011.6
20260901040853 16 185 9.7 20.9 0.00 0.00 0.00 76 1011.7
20260901040747 16 82 9.7 20.9 0.00 0.00 0.00 76 1011.7
20260901040647 16 194 9.7 20.9 0.00 0.00 0.00 76 1011.6
20260901040547 16 242 9.7 20.9 0.00 0.00 0.00 76 1011.6
20260901040447 16 240 9.7 20.9 0.00 0.00 0.00 76 1011.6
20260901040347 16 212 9.7 20.9 0.00 0.00 0.00 76 1011.6
20260901040242 16 287 9.7 20.9 0.00 0.00 0.00 76 1011.5
20260901040143 16 238 9.7 20.9 0.00 0.00 0.00 76 1011.6
20260901040042 16 253 9.7 20.9 0.00 0.00 0.00 76 1011.5
20260901035943 16 246 9.7 24.1 0.00 0.00 0.00 76 1011.5
20260901035842 16 226 9.7 24.1 0.00 0.00 0.00 76 1011.5
20260901035734 16 197 9.7 24.1 0.00 0.00 0.00 76 1011.5
20260901035635 16 264 9.7 24.1 0.00 0.00 0.00 76 1011.5
20260901035536 16 262 9.7 24.1 0.00 0.00 0.00 75 1011.5
20260901035435 17 264 11.3 24.1 0.00 0.00 0.00 75 1011.4
20260901035336 17 212 11.3 24.1 0.00 0.00 0.00 75 1011.5
20260901035229 17 246 11.3 24.1 0.00 0.00 0.00 75 1011.5
20260901035128 17 221 11.3 25.7 0.00 0.00 0.00 75 1011.4
20260901035054 17 203 11.3 25.7 0.00 0.00 0.00 75 1011.4
20260901035029 17 219 11.3 25.7 0.00 0.00 0.00 75 1011.5
20260901034944 17 266 11.3 25.7 0.00 0.00 0.00 75 1011.4
20260901034934 17 203 11.3 25.7 0.00 0.00 0.00 75 1011.4
20260901034725 17 212 11.3 25.7 0.00 0.00 0.00 75 1011.4
20260901034622 17 270 11.3 25.7 0.00 0.00 0.00 75 1011.4
20260901034524 17 242 11.3 25.7 0.00 0.00 0.00 75 1011.3
20260901034423 17 225 11.3 25.7 0.00 0.00 0.00 75 1011.3
20260901034333 17 238 11.3 25.7 0.00 0.00 0.00 75 1011.3
20260901034217 17 271 11.3 25.7 0.00 0.00 0.00 75 1011.3
20260901034117 17 229 11.3 22.5 0.00 0.00 0.00 75 1011.2
20260901034017 17 242 11.3 22.5 0.00 0.00 0.00 75 1011.2
20260901033916 17 120 11.3 24.1 0.00 0.00 0.00 75 1011.2
20260901033817 17 263 9.7 24.1 0.00 0.00 0.00 75 1011.2
20260901033711 17 235 11.3 24.1 0.00 0.00 0.00 75 1011.2
20260901033610 17 225 11.3 24.1 0.00 0.00 0.00 76 1011.2
20260901033512 17 203 11.3 24.1 0.00 0.00 0.00 76 1011.2
20260901033411 17 239 11.3 24.1 0.00 0.00 0.00 76 1011.1
20260901033312 17 240 11.3 24.1 0.00 0.00 0.00 76 1011.1
20260901033204 17 218 11.3 24.1 0.00 0.00 0.00 76 1011.1
20260901033105 17 257 11.3 24.1 0.00 0.00 0.00 76 1011.1
20260901033005 17 197 11.3 24.1 0.00 0.00 0.00 76 1011.1
20260901032905 17 260 11.3 22.5 0.00 0.00 0.00 76 1011.1
20260901032805 17 242 11.3 22.5 0.00 0.00 0.00 76 1011.0
20260901032701 17 250 9.7 22.5 0.00 0.00 0.00 75 1011.0
20260901032601 17 239 9.7 22.5 0.00 0.00 0.00 75 1011.0
20260901032517 17 226 9.7 24.1 0.00 0.00 0.00 75 1010.9
20260901032507 17 229 9.7 22.5 0.00 0.00 0.00 75 1011.0
20260901032414 17 262 9.7 22.5 0.00 0.00 0.00 75 1011.0
20260901032404 17 226 9.7 24.1 0.00 0.00 0.00 75 1010.9
20260901032157 17 250 9.7 24.1 0.00 0.00 0.00 75 1010.9
20260901032059 17 257 9.7 24.1 0.00 0.00 0.00 75 1010.9
20260901031958 17 263 9.7 24.1 0.00 0.00 0.00 75 1010.9
20260901031852 17 242 9.7 24.1 0.00 0.00 0.00 75 1010.9
20260901031754 17 259 9.7 24.1 0.00 0.00 0.00 75 1010.8
20260901031734 17 257 9.7 32.2 0.00 0.00 0.00 75 1010.8
20260901031648 17 255 9.7 24.1 0.00 0.00 0.00 75 1010.8
20260901031620 17 233 9.7 24.1 0.00 0.00 0.00 75 1010.8
20260901031449 17 253 9.7 24.1 0.00 0.00 0.00 75 1010.8
20260901031406 17 245 9.7 24.1 0.00 0.00 0.00 75 1010.8
20260901031358 17 221 9.7 32.2 0.00 0.00 0.00 75 1010.8
20260901031148 17 259 9.7 32.2 0.00 0.00 0.00 75 1010.8
20260901031049 17 253 9.7 32.2 0.00 0.00 0.00 75 1010.8
20260901030949 17 232 9.7 32.2 0.00 0.00 0.00 75 1010.8
20260901030849 17 204 9.7 32.2 0.00 0.00 0.00 75 1010.8
20260901030757 17 259 11.3 32.2 0.00 0.00 0.00 75 1010.8
20260901030746 17 246 11.3 32.2 0.00 0.00 0.00 75 1010.8
20260901030649 17 290 9.7 32.2 0.00 0.00 0.00 75 1010.8
20260901030549 17 217 9.7 32.2 0.00 0.00 0.00 75 1010.8
20260901030449 17 245 9.7 32.2 0.00 0.00 0.00 75 1010.7
20260901030349 17 233 9.7 32.2 0.00 0.00 0.00 75 1010.8
20260901030248 17 219 11.3 0.0 0.00 0.00 0.00 75 1010.8
20260901030137 17 236 9.7 27.4 0.00 0.00 0.00 75 1010.7
20260901030037 17 219 11.3 27.4 0.00 0.00 0.00 75 1010.7
20260901025937 17 245 11.3 27.4 0.00 0.00 0.00 75 1010.7
20260901025923 17 134 11.3 27.4 0.00 0.00 0.00 74 1010.7
20260901025836 17 241 9.7 25.7 0.00 0.00 0.00 74 1010.7
20260901025735 17 256 9.7 25.7 0.00 0.00 0.00 74 1010.7
20260901025630 17 210 9.7 25.7 0.00 0.00 0.00 74 1010.7
20260901025531 17 253 11.3 25.7 0.00 0.00 0.00 74 1010.7
20260901025431 17 243 11.3 25.7 0.00 0.00 0.00 74 1010.7
20260901025417 17 262 11.3 25.7 0.00 0.00 0.00 74 1010.7
20260901025330 17 235 11.3 25.7 0.00 0.00 0.00 74 1010.7
20260901025230 17 231 11.3 24.1 0.00 0.00 0.00 74 1010.8
20260901025126 17 212 9.7 22.5 0.00 0.00 0.00 74 1010.7
20260901025025 17 278 9.7 22.5 0.00 0.00 0.00 74 1010.7
20260901024924 17 240 9.7 22.5 0.00 0.00 0.00 74 1010.7
20260901024912 17 195 9.7 22.5 0.00 0.00 0.00 74 1010.7
20260901024825 17 255 9.7 22.5 0.00 0.00 0.00 74 1010.7
20260901024726 17 256 11.3 24.1 0.00 0.00 0.00 74 1010.7
20260901024619 17 193 11.3 24.1 0.00 0.00 0.00 74 1010.7
20260901024519 17 217 11.3 24.1 0.00 0.00 0.00 74 1010.7
20260901024418 17 236 11.3 24.1 0.00 0.00 0.00 73 1010.6
20260901024406 17 228 9.7 24.1 0.00 0.00 0.00 73 1010.8
20260901024319 17 262 9.7 24.1 0.00 0.00 0.00 73 1010.8
20260901024218 17 269 9.7 24.1 0.00 0.00 0.00 73 1010.7
20260901024113 18 214 9.7 24.1 0.00 0.00 0.00 73 1010.6
20260901024012 18 250 11.3 24.1 0.00 0.00 0.00 73 1010.7
20260901023912 18 222 11.3 24.1 0.00 0.00 0.00 73 1010.7
20260901023859 18 288 11.3 24.1 0.00 0.00 0.00 73 1010.7
20260901023813 18 250 11.3 24.1 0.00 0.00 0.00 73 1010.7
20260901023711 18 232 9.7 24.1 0.00 0.00 0.00 73 1010.7
20260901023607 18 229 11.3 24.1 0.00 0.00 0.00 73 1010.6
20260901023508 18 230 11.3 24.1 0.00 0.00 0.00 73 1010.7
20260901023407 18 187 11.3 24.1 0.00 0.00 0.00 72 1010.7
20260901023353 18 200 11.3 24.1 0.00 0.00 0.00 72 1010.7
20260901023306 18 235 11.3 24.1 0.00 0.00 0.00 72 1010.6
20260901023205 18 260 11.3 24.1 0.00 0.00 0.00 72 1010.6
20260901023100 18 274 11.3 24.1 0.00 0.00 0.00 72 1010.7
20260901023000 18 292 9.7 24.1 0.00 0.00 0.00 72 1010.6
20260901022900 18 245 11.3 24.1 0.00 0.00 0.00 72 1010.6
20260901022847 18 243 11.3 24.1 0.00 0.00 0.00 72 1010.6
20260901022800 18 253 11.3 24.1 0.00 0.00 0.00 72 1010.6
20260901022700 18 269 9.7 24.1 0.00 0.00 0.00 72 1010.7
20260901022555 18 256 9.7 24.1 0.00 0.00 0.00 72 1010.6
20260901022454 18 270 9.7 24.1 0.00 0.00 0.00 72 1010.6
20260901022354 18 219 9.7 29.0 0.00 0.00 0.00 72 1010.6
20260901022342 18 264 9.7 29.0 0.00 0.00 0.00 71 1010.6
20260901022254 18 232 9.7 30.6 0.00 0.00 0.00 71 1010.6
20260901022154 18 283 9.7 30.6 0.00 0.00 0.00 71 1010.6
20260901022048 18 232 9.7 30.6 0.00 0.00 0.00 71 1010.6
20260901021948 18 245 11.3 30.6 0.00 0.00 0.00 71 1010.6
20260901021848 18 243 11.3 30.6 0.00 0.00 0.00 71 1010.6
20260901021835 18 245 11.3 30.6 0.00 0.00 0.00 71 1010.6
20260901021749 18 238 9.7 30.6 0.00 0.00 0.00 71 1010.6
20260901021650 18 256 9.7 30.6 0.00 0.00 0.00 71 1010.5
20260901021545 18 238 9.7 30.6 0.00 0.00 0.00 71 1010.5
20260901021443 18 232 9.7 30.6 0.00 0.00 0.00 70 1010.6
20260901021343 18 240 9.7 30.6 0.00 0.00 0.00 70 1010.6
20260901021329 18 280 9.7 30.6 0.00 0.00 0.00 70 1010.6
20260901021243 18 229 9.7 25.7 0.00 0.00 0.00 70 1010.7
20260901021142 18 219 9.7 32.2 0.00 0.00 0.00 70 1010.6
20260901021036 18 211 11.3 32.2 0.00 0.00 0.00 70 1010.6
20260901020936 18 224 11.3 32.2 0.00 0.00 0.00 70 1010.6
20260901020837 18 257 11.3 32.2 0.00 0.00 0.00 70 1010.6
20260901020829 18 214 11.3 32.2 0.00 0.00 0.00 70 1010.6
20260901020737 18 263 11.3 32.2 0.00 0.00 0.00 70 1010.5
20260901020636 18 245 11.3 32.2 0.00 0.00 0.00 69 1010.6
20260901020531 19 256 11.3 32.2 0.00 0.00 0.00 69 1010.6
20260901020431 19 243 11.3 32.2 0.00 0.00 0.00 69 1010.6
20260901020330 19 257 11.3 32.2 0.00 0.00 0.00 69 1010.6
20260901020317 19 236 11.3 32.2 0.00 0.00 0.00 69 1010.6
20260901020231 19 250 9.7 32.2 0.00 0.00 0.00 69 1010.6
20260901020130 19 238 9.7 29.0 0.00 0.00 0.00 69 1010.6
20260901020026 19 266 9.7 29.0 0.00 0.00 0.00 69 1010.6
20260901015925 19 291 9.7 29.0 0.00 0.00 0.00 69 1010.5
20260901015824 19 212 9.7 25.7 0.00 0.00 0.00 68 1010.5
20260901015813 19 264 9.7 25.7 0.00 0.00 0.00 68 1010.5
20260901015725 19 187 9.7 25.7 0.00 0.00 0.00 68 1010.5
20260901015624 19 221 9.7 25.7 0.00 0.00 0.00 68 1010.5
20260901015519 19 274 9.7 25.7 0.00 0.00 0.00 68 1010.4
20260901015419 19 153 9.7 25.7 0.00 0.00 0.00 68 1010.4
20260901015319 19 289 8.0 25.7 0.00 0.00 0.00 68 1010.4
20260901015306 19 222 8.0 25.7 0.00 0.00 0.00 68 1010.4
20260901015218 19 193 8.0 25.7 0.00 0.00 0.00 68 1010.4
20260901015117 20 256 8.0 25.7 0.00 0.00 0.00 67 1010.4
20260901015013 20 262 8.0 24.1 0.00 0.00 0.00 67 1010.4
20260901014913 20 256 8.0 24.1 0.00 0.00 0.00 67 1010.4
20260901014812 20 281 9.7 24.1 0.00 0.00 0.00 67 1010.4
20260901014800 20 228 8.0 24.1 0.00 0.00 0.00 67 1010.4
20260901014712 20 226 8.0 24.1 0.00 0.00 0.00 67 1010.4
20260901014611 20 253 9.7 24.1 0.00 0.00 0.00 67 1010.4
20260901014517 20 248 9.7 24.1 0.00 0.00 0.00 66 1010.4
20260901014507 20 240 9.7 24.1 0.00 0.00 0.00 67 1010.4
20260901014408 20 246 9.7 24.1 0.00 0.00 0.00 67 1010.3
20260901014400 20 253 9.7 24.1 0.00 0.00 0.00 66 1010.4
20260901014206 20 262 9.7 24.1 0.00 0.00 0.00 66 1010.4
20260901014105 20 284 9.7 24.1 0.00 0.00 0.00 66 1010.4
20260901014002 20 224 8.0 22.5 0.00 0.00 0.00 66 1010.4
20260901013902 20 243 8.0 22.5 0.00 0.00 0.00 66 1010.4
20260901013803 20 239 8.0 22.5 0.00 0.00 0.00 66 1010.4
20260901013748 20 230 8.0 22.5 0.00 0.00 0.00 66 1010.4
20260901013702 20 253 6.4 22.5 0.00 0.00 0.00 66 1010.4
20260901013600 20 200 6.4 22.5 0.00 0.00 0.00 65 1010.3
20260901013454 20 280 6.4 22.5 0.00 0.00 0.00 65 1010.3
20260901013355 20 263 6.4 20.9 0.00 0.00 0.00 65 1010.3
20260901013255 20 278 6.4 19.3 0.00 0.00 0.00 65 1010.3
20260901013241 20 267 6.4 19.3 0.00 0.00 0.00 65 1010.3
20260901013154 20 238 6.4 19.3 0.00 0.00 0.00 65 1010.3
20260901013053 20 340 6.4 19.3 0.00 0.00 0.00 64 1010.3
20260901012948 20 229 6.4 19.3 0.00 0.00 0.00 64 1010.3
20260901012849 20 231 6.4 19.3 0.00 0.00 0.00 64 1010.3
20260901012748 20 307 8.0 19.3 0.00 0.00 0.00 64 1010.3
20260901012735 20 317 8.0 19.3 0.00 0.00 0.00 64 1010.3
20260901012649 20 157 8.0 20.9 0.00 0.00 0.00 64 1010.3
20260901012548 20 246 8.0 20.9 0.00 0.00 0.00 64 1010.3
20260901012444 20 288 8.0 20.9 0.00 0.00 0.00 65 1010.3
20260901012342 20 236 6.4 20.9 0.00 0.00 0.00 65 1010.3
20260901012244 20 188 6.4 20.9 0.00 0.00 0.00 65 1010.3
20260901012234 20 246 6.4 20.9 0.00 0.00 0.00 65 1010.3
20260901012142 20 273 6.4 20.9 0.00 0.00 0.00 65 1010.2
20260901012042 20 263 6.4 20.9 0.00 0.00 0.00 64 1010.2
20260901011937 20 257 6.4 20.9 0.00 0.00 0.00 65 1010.2
20260901011837 20 238 8.0 20.9 0.00 0.00 0.00 64 1010.2
20260901011737 20 249 6.4 20.9 0.00 0.00 0.00 64 1010.2
20260901011727 20 207 6.4 20.9 0.00 0.00 0.00 64 1010.2
20260901011637 20 223 6.4 19.3 0.00 0.00 0.00 64 1010.2
20260901011537 20 229 6.4 19.3 0.00 0.00 0.00 64 1010.2
20260901011430 20 257 6.4 19.3 0.00 0.00 0.00 64 1010.2
20260901011330 21 270 8.0 19.3 0.00 0.00 0.00 64 1010.2
20260901011230 21 250 8.0 19.3 0.00 0.00 0.00 64 1010.3
20260901011218 21 236 8.0 19.3 0.00 0.00 0.00 64 1010.2
20260901011131 21 231 8.0 19.3 0.00 0.00 0.00 64 1010.2
20260901011030 21 242 8.0 19.3 0.00 0.00 0.00 64 1010.2
20260901010927 21 243 9.7 20.9 0.00 0.00 0.00 63 1010.3
20260901010824 21 224 9.7 24.1 0.00 0.00 0.00 63 1010.3
20260901010724 21 217 9.7 24.1 0.00 0.00 0.00 63 1010.3
20260901010711 21 246 9.7 24.1 0.00 0.00 0.00 63 1010.3
20260901010625 21 253 9.7 24.1 0.00 0.00 0.00 63 1010.3
20260901010524 21 278 11.3 24.1 0.00 0.00 0.00 63 1010.3
20260901010419 21 233 11.3 29.0 0.00 0.00 0.00 62 1010.3
20260901010318 21 203 11.3 29.0 0.00 0.00 0.00 62 1010.2
20260901010218 21 228 11.3 29.0 0.00 0.00 0.00 62 1010.2
20260901010205 21 226 9.7 29.0 0.00 0.00 0.00 62 1010.2
20260901010119 21 236 9.7 29.0 0.00 0.00 0.00 62 1010.2
20260901010018 21 211 9.7 29.0 0.00 0.00 0.00 62 1010.2
20260901005914 21 312 9.7 29.0 0.00 0.00 0.00 62 1010.2
20260901005812 21 255 8.0 29.0 0.00 0.00 0.00 61 1010.2
20260901005714 21 207 8.0 29.0 0.00 0.00 0.00 61 1010.2
20260901005700 21 248 8.0 29.0 0.00 0.00 0.00 61 1010.2
20260901005613 21 239 8.0 29.0 0.00 0.00 0.00 61 1010.1
20260901005512 21 242 6.4 29.0 0.00 0.00 0.00 61 1010.2
20260901005415 21 228 6.4 24.1 0.00 0.00 0.00 61 1010.2
20260901005406 21 222 6.4 19.3 0.00 0.00 0.00 61 1010.2
20260901005307 21 300 6.4 19.3 0.00 0.00 0.00 61 1010.2
20260901005207 21 238 6.4 24.1 0.00 0.00 0.00 61 1010.2
20260901005106 21 252 6.4 24.1 0.00 0.00 0.00 61 1010.2
20260901005008 21 242 8.0 24.1 0.00 0.00 0.00 61 1010.1
20260901004904 21 239 8.0 24.1 0.00 0.00 0.00 61 1010.1
20260901004804 21 232 8.0 24.1 0.00 0.00 0.00 61 1010.1
20260901004704 21 211 8.0 24.1 0.00 0.00 0.00 61 1010.1
20260901004648 21 263 8.0 24.1 0.00 0.00 0.00 61 1010.1
20260901004602 21 226 8.0 24.1 0.00 0.00 0.00 61 1010.2
20260901004500 21 308 8.0 24.1 0.00 0.00 0.00 60 1010.2
20260901004355 21 238 8.0 24.1 0.00 0.00 0.00 60 1010.3
20260901004254 21 217 8.0 24.1 0.00 0.00 0.00 60 1010.2
20260901004154 21 228 6.4 24.1 0.00 0.00 0.00 60 1010.2
20260901004142 21 287 6.4 24.1 0.00 0.00 0.00 60 1010.2
20260901004125 22 236 6.4 24.1 0.00 0.00 0.00 59 1010.3
20260901004055 21 248 6.4 24.1 0.00 0.00 0.00 60 1010.2
20260901004008 22 270 8.0 24.1 0.00 0.00 0.00 60 1010.3
20260901003850 22 232 6.4 24.1 0.00 0.00 0.00 60 1010.2
20260901003751 22 233 6.4 24.1 0.00 0.00 0.00 59 1010.2
20260901003650 22 262 6.4 24.1 0.00 0.00 0.00 59 1010.3
20260901003550 22 245 8.0 24.1 0.00 0.00 0.00 59 1010.3
20260901003447 22 203 6.4 24.1 0.00 0.00 0.00 60 1010.3
20260901003342 22 250 8.0 24.1 0.00 0.00 0.00 60 1010.3
20260901003242 22 200 6.4 24.1 0.00 0.00 0.00 60 1010.3
20260901003143 22 295 6.4 24.1 0.00 0.00 0.00 59 1010.3
20260901003130 22 214 6.4 24.1 0.00 0.00 0.00 59 1010.3
20260901003112 22 243 8.0 24.1 0.00 0.00 0.00 59 1010.3
20260901003042 22 200 8.0 24.1 0.00 0.00 0.00 59 1010.3
20260901002956 22 215 6.4 24.1 0.00 0.00 0.00 58 1010.4
20260901002836 22 217 8.0 24.1 0.00 0.00 0.00 58 1010.3
20260901002736 22 250 8.0 24.1 0.00 0.00 0.00 58 1010.4
20260901002638 22 241 8.0 24.1 0.00 0.00 0.00 59 1010.4
20260901002536 22 208 8.0 24.1 0.00 0.00 0.00 59 1010.3
20260901002436 22 250 9.7 24.1 0.00 0.00 0.00 59 1010.3
20260901002331 22 274 9.7 24.1 0.00 0.00 0.00 59 1010.3
20260901002230 22 226 9.7 24.1 0.00 0.00 0.00 59 1010.3
20260901002130 22 204 9.7 24.1 0.00 0.00 0.00 58 1010.3
20260901002118 22 234 9.7 24.1 0.00 0.00 0.00 58 1010.3
20260901002030 22 235 9.7 24.1 0.00 0.00 0.00 58 1010.3
20260901001930 22 221 9.7 20.9 0.00 0.00 0.00 58 1010.4
20260901001824 22 241 9.7 20.9 0.00 0.00 0.00 57 1010.4
20260901001724 22 291 9.7 20.9 0.00 0.00 0.00 57 1010.4
20260901001625 22 242 8.0 20.9 0.00 0.00 0.00 57 1010.4
20260901001611 22 259 8.0 20.9 0.00 0.00 0.00 57 1010.4
20260901001524 22 255 8.0 20.9 0.00 0.00 0.00 58 1010.4
20260901001424 22 238 8.0 20.9 0.00 0.00 0.00 58 1010.4
20260901001320 22 219 8.0 20.9 0.00 0.00 0.00 58 1010.4
20260901001218 22 210 9.7 25.7 0.00 0.00 0.00 57 1010.3
20260901001119 22 240 8.0 25.7 0.00 0.00 0.00 58 1010.3
20260901001106 22 259 8.0 25.7 0.00 0.00 0.00 58 1010.3
20260901001019 22 260 8.0 25.7 0.00 0.00 0.00 58 1010.3
20260901000918 22 235 8.0 25.7 0.00 0.00 0.00 57 1010.3
20260901000812 22 235 8.0 25.7 0.00 0.00 0.00 57 1010.4
20260901000715 22 245 8.0 25.7 0.00 0.00 0.00 57 1010.3
20260901000612 22 253 9.7 25.7 0.00 0.00 0.00 57 1010.4
20260901000559 22 226 9.7 25.7 0.00 0.00 0.00 57 1010.4
20260901000512 22 239 9.7 25.7 0.00 0.00 0.00 57 1010.4
20260901000413 22 219 9.7 25.7 0.00 0.00 0.00 57 1010.3
20260901000306 22 231 8.0 25.7 0.00 0.00 0.00 57 1010.4
20260901000207 22 238 9.7 20.9 0.00 0.00 0.00 58 1010.2
20260901000113 22 208 9.7 20.9 0.00 0.00 0.00 57 1010.3
20260901000107 22 264 9.7 20.9 0.00 0.00 0.00 57 1010.3
20260901000008 22 248 9.7 20.9 0.00 0.00 0.00 56 1010.3
20260831235906 22 241 9.7 20.9 0.00 0.00 0.00 56 1010.3
20260831235802 22 222 8.0 20.9 0.00 0.00 0.00 56 1010.3
20260831235701 22 233 8.0 20.9 0.00 0.00 0.00 56 1010.3
20260831235600 22 245 8.0 20.9 0.00 0.00 0.00 56 1010.3
20260831235547 22 252 8.0 20.9 0.00 0.00 0.00 56 1010.3
20260831235500 22 273 8.0 20.9 0.00 0.00 0.00 57 1010.3
20260831235400 22 270 8.0 22.5 0.00 0.00 0.00 56 1010.3
20260831235255 22 238 8.0 22.5 0.00 0.00 0.00 55 1010.3
20260831235154 22 274 6.4 22.5 0.00 0.00 0.00 56 1010.3
20260831235054 23 233 6.4 24.1 0.00 0.00 0.00 56 1010.3
20260831235044 23 248 6.4 24.1 0.00 0.00 0.00 56 1010.3
20260831234954 23 228 8.0 24.1 0.00 0.00 0.00 56 1010.4
20260831234854 23 288 8.0 24.1 0.00 0.00 0.00 56 1010.4
20260831234756 23 248 8.0 24.1 0.00 0.00 0.00 55 1010.4
20260831234751 23 278 8.0 24.1 0.00 0.00 0.00 56 1010.3
20260831234652 23 256 8.0 24.1 0.00 0.00 0.00 56 1010.3
20260831234641 23 259 8.0 24.1 0.00 0.00 0.00 55 1010.4
20260831234450 23 212 8.0 24.1 0.00 0.00 0.00 55 1010.4
20260831234348 23 262 9.7 24.1 0.00 0.00 0.00 55 1010.4
20260831234242 23 239 9.7 24.1 0.00 0.00 0.00 55 1010.4
20260831234142 23 241 8.0 24.1 0.00 0.00 0.00 55 1010.5
20260831234043 23 259 8.0 20.9 0.00 0.00 0.00 55 1010.5
20260831234030 23 214 8.0 20.9 0.00 0.00 0.00 55 1010.5
20260831233942 23 231 8.0 20.9 0.00 0.00 0.00 55 1010.4
20260831233842 23 221 8.0 20.9 0.00 0.00 0.00 55 1010.4
20260831233739 23 228 8.0 20.9 0.00 0.00 0.00 55 1010.4
20260831233639 23 212 8.0 22.5 0.00 0.00 0.00 55 1010.4
20260831233538 23 207 8.0 22.5 0.00 0.00 0.00 55 1010.5
20260831233527 23 152 8.0 22.5 0.00 0.00 0.00 55 1010.5
20260831233438 23 226 8.0 22.5 0.00 0.00 0.00 55 1010.4
20260831233335 23 204 8.0 22.5 0.00 0.00 0.00 55 1010.5
20260831233232 23 284 8.0 22.5 0.00 0.00 0.00 55 1010.4
20260831233131 23 246 8.0 22.5 0.00 0.00 0.00 56 1010.4
20260831233030 23 233 8.0 22.5 0.00 0.00 0.00 55 1010.4
20260831233020 23 201 8.0 22.5 0.00 0.00 0.00 56 1010.5
20260831232930 23 224 8.0 22.5 0.00 0.00 0.00 56 1010.5
20260831232831 23 288 8.0 22.5 0.00 0.00 0.00 55 1010.5
20260831232725 23 215 9.7 20.9 0.00 0.00 0.00 56 1010.5
20260831232624 23 231 9.7 20.9 0.00 0.00 0.00 56 1010.5
20260831232528 23 301 9.7 20.9 0.00 0.00 0.00 56 1010.5
20260831232521 23 256 9.7 20.9 0.00 0.00 0.00 55 1010.6
20260831232425 23 236 9.7 20.9 0.00 0.00 0.00 55 1010.6
20260831232324 23 252 8.0 20.9 0.00 0.00 0.00 56 1010.6
20260831232220 23 278 8.0 20.9 0.00 0.00 0.00 56 1010.6
20260831232118 23 242 9.7 20.9 0.00 0.00 0.00 56 1010.6
20260831232018 23 245 9.7 20.9 0.00 0.00 0.00 56 1010.6
20260831232010 23 233 9.7 20.9 0.00 0.00 0.00 56 1010.6
20260831231918 23 222 9.7 20.9 0.00 0.00 0.00 56 1010.6
20260831231817 23 232 9.7 20.9 0.00 0.00 0.00 55 1010.7
20260831231712 23 238 8.0 20.9 0.00 0.00 0.00 55 1010.7
20260831231612 23 253 8.0 17.7 0.00 0.00 0.00 56 1010.7
20260831231513 23 231 9.7 17.7 0.00 0.00 0.00 56 1010.7
20260831231502 23 231 9.7 17.7 0.00 0.00 0.00 56 1010.7
20260831231413 23 233 9.7 17.7 0.00 0.00 0.00 56 1010.7
20260831231312 23 225 9.7 17.7 0.00 0.00 0.00 55 1010.7
20260831231207 23 219 9.7 17.7 0.00 0.00 0.00 55 1010.7
20260831231106 23 243 9.7 17.7 0.00 0.00 0.00 56 1010.7
20260831231008 23 248 8.0 17.7 0.00 0.00 0.00 56 1010.7
20260831231002 23 215 8.0 17.7 0.00 0.00 0.00 56 1010.7
20260831230906 23 212 8.0 17.7 0.00 0.00 0.00 55 1010.7
20260831230805 23 135 6.4 17.7 0.00 0.00 0.00 55 1010.7
20260831230701 23 172 6.4 17.7 0.00 0.00 0.00 55 1010.7
20260831230600 23 233 6.4 16.1 0.00 0.00 0.00 55 1010.7
20260831230508 23 248 6.4 19.3 0.00 0.00 0.00 55 1010.8
20260831230400 23 193 6.4 22.5 0.00 0.00 0.00 55 1010.7
20260831230259 23 249 6.4 22.5 0.00 0.00 0.00 56 1010.7
20260831230227 23 114 9.7 22.5 0.00 0.00 0.00 57 1010.7
20260831230156 23 271 8.0 22.5 0.00 0.00 0.00 56 1010.7
20260831230113 23 219 8.0 22.5 0.00 0.00 0.00 57 1010.7
20260831225957 23 172 9.7 22.5 0.00 0.00 0.00 57 1010.7
20260831225857 23 314 9.7 27.4 0.00 0.00 0.00 57 1010.7
20260831225753 23 217 9.7 27.4 0.00 0.00 0.00 57 1010.7
20260831225651 23 225 9.7 27.4 0.00 0.00 0.00 56 1010.7
20260831225550 23 273 9.7 27.4 0.00 0.00 0.00 56 1010.8
20260831225502 23 258 9.7 27.4 0.00 0.00 0.00 56 1010.8
20260831225449 23 287 9.7 27.4 0.00 0.00 0.00 56 1010.8
20260831225349 23 190 11.3 27.4 0.00 0.00 0.00 56 1010.8
20260831225248 23 238 9.7 27.4 0.00 0.00 0.00 56 1010.8
20260831225143 23 242 8.0 27.4 0.00 0.00 0.00 55 1010.8
20260831225045 23 248 8.0 27.4 0.00 0.00 0.00 55 1010.9
20260831225003 23 242 6.4 27.4 0.00 0.00 0.00 56 1010.8
20260831224943 23 226 6.4 22.5 0.00 0.00 0.00 56 1010.8
20260831224844 23 245 6.4 22.5 0.00 0.00 0.00 56 1010.8
20260831224742 23 228 6.4 22.5 0.00 0.00 0.00 55 1010.8
20260831224639 23 243 6.4 22.5 0.00 0.00 0.00 55 1010.9
20260831224539 23 197 6.4 22.5 0.00 0.00 0.00 55 1010.8
20260831224502 23 232 6.4 19.3 0.00 0.00 0.00 55 1010.8
20260831224438 23 248 6.4 19.3 0.00 0.00 0.00 55 1010.8
20260831224338 23 294 4.8 19.3 0.00 0.00 0.00 55 1010.8
20260831224237 23 345 4.8 19.3 0.00 0.00 0.00 57 1010.8
20260831224132 23 137 6.4 19.3 0.00 0.00 0.00 56 1010.8
20260831224030 23 211 6.4 19.3 0.00 0.00 0.00 56 1010.9
20260831223931 23 243 6.4 19.3 0.00 0.00 0.00 56 1010.9
20260831223830 23 243 6.4 19.3 0.00 0.00 0.00 56 1010.9
20260831223729 23 252 6.4 19.3 0.00 0.00 0.00 56 1011.0
20260831223624 23 238 6.4 19.3 0.00 0.00 0.00 56 1010.9
20260831223525 23 266 4.8 16.1 0.00 0.00 0.00 56 1010.9
20260831223457 23 217 4.8 16.1 0.00 0.00 0.00 56 1010.9
20260831223424 23 257 4.8 16.1 0.00 0.00 0.00 55 1010.9
20260831223324 23 290 6.4 16.1 0.00 0.00 0.00 56 1010.9
20260831223224 23 253 6.4 19.3 0.00 0.00 0.00 55 1011.0
20260831223123 23 255 6.4 19.3 0.00 0.00 0.00 55 1011.0
20260831223023 23 278 6.4 19.3 0.00 0.00 0.00 56 1011.0
20260831222958 23 225 6.4 19.3 0.00 0.00 0.00 56 1011.0
20260831222923 23 248 6.4 19.3 0.00 0.00 0.00 56 1011.0
20260831222821 23 296 6.4 19.3 0.00 0.00 0.00 56 1010.9
20260831222718 23 278 6.4 19.3 0.00 0.00 0.00 56 1011.0
20260831222613 23 274 6.4 19.3 0.00 0.00 0.00 56 1011.0
20260831222512 23 238 6.4 24.1 0.00 0.00 0.00 56 1011.0
20260831222503 23 232 6.4 24.1 0.00 0.00 0.00 56 1011.0
20260831222412 23 260 6.4 24.1 0.00 0.00 0.00 56 1011.0
20260831222313 23 242 8.0 24.1 0.00 0.00 0.00 56 1011.0
20260831222214 23 256 8.0 24.1 0.00 0.00 0.00 56 1010.9
20260831222112 23 235 8.0 24.1 0.00 0.00 0.00 56 1010.9
20260831222010 23 242 8.0 24.1 0.00 0.00 0.00 56 1011.0
20260831221958 23 263 8.0 24.1 0.00 0.00 0.00 56 1011.0
20260831221909 23 269 8.0 24.1 0.00 0.00 0.00 56 1011.0
20260831221809 23 261 9.7 24.1 0.00 0.00 0.00 56 1011.0
20260831221708 23 243 9.7 24.1 0.00 0.00 0.00 56 1011.0
20260831221609 23 229 9.7 24.1 0.00 0.00 0.00 56 1011.0
20260831221509 23 229 8.0 24.1 0.00 0.00 0.00 55 1011.1
20260831221458 23 232 8.0 24.1 0.00 0.00 0.00 55 1011.1
20260831221408 23 257 6.4 24.1 0.00 0.00 0.00 55 1011.0
20260831221308 23 240 6.4 19.3 0.00 0.00 0.00 56 1011.1
20260831221225 23 259 6.4 19.3 0.00 0.00 0.00 55 1011.1
20260831221210 23 257 6.4 19.3 0.00 0.00 0.00 56 1011.1
20260831221109 23 225 6.4 19.3 0.00 0.00 0.00 55 1011.1
20260831221007 23 221 6.4 19.3 0.00 0.00 0.00 55 1011.1
20260831220906 23 260 6.4 19.3 0.00 0.00 0.00 55 1011.1
20260831220805 23 185 6.4 19.3 0.00 0.00 0.00 55 1011.1
20260831220704 23 256 6.4 19.3 0.00 0.00 0.00 55 1011.2
20260831220603 23 224 6.4 19.3 0.00 0.00 0.00 55 1011.2
20260831220504 24 222 4.8 19.3 0.00 0.00 0.00 55 1011.2
20260831220456 24 223 4.8 19.3 0.00 0.00 0.00 55 1011.2
20260831220402 24 266 4.8 17.7 0.00 0.00 0.00 55 1011.2
20260831220302 24 219 4.8 17.7 0.00 0.00 0.00 55 1011.2
20260831220203 24 262 4.8 17.7 0.00 0.00 0.00 55 1011.1
20260831220100 24 243 6.4 17.7 0.00 0.00 0.00 55 1011.2
20260831220004 23 256 6.4 17.7 0.00 0.00 0.00 56 1011.1
20260831215956 23 243 6.4 17.7 0.00 0.00 0.00 56 1011.1
20260831215858 23 238 6.4 17.7 0.00 0.00 0.00 56 1011.1
20260831215756 23 219 6.4 17.7 0.00 0.00 0.00 56 1011.2
20260831215654 23 219 6.4 20.9 0.00 0.00 0.00 57 1011.2
20260831215554 23 253 8.0 22.5 0.00 0.00 0.00 56 1011.1
20260831215453 23 253 8.0 22.5 0.00 0.00 0.00 56 1011.2
20260831215352 23 201 9.7 22.5 0.00 0.00 0.00 56 1011.2
20260831215252 23 257 9.7 22.5 0.00 0.00 0.00 56 1011.2
20260831215152 23 190 9.7 22.5 0.00 0.00 0.00 57 1011.2
20260831215053 23 198 9.7 22.5 0.00 0.00 0.00 57 1011.2
20260831214953 23 225 11.3 24.1 0.00 0.00 0.00 56 1011.2
20260831214848 23 291 9.7 24.1 0.00 0.00 0.00 56 1011.2
20260831214746 23 266 9.7 24.1 0.00 0.00 0.00 56 1011.2
20260831214646 23 238 9.7 24.1 0.00 0.00 0.00 56 1011.3
20260831214546 23 267 8.0 24.1 0.00 0.00 0.00 55 1011.2
20260831214447 23 267 8.0 24.1 0.00 0.00 0.00 56 1011.2
20260831214340 23 266 8.0 24.1 0.00 0.00 0.00 55 1011.3
20260831214241 23 257 8.0 24.1 0.00 0.00 0.00 55 1011.3
20260831214142 23 116 8.0 24.1 0.00 0.00 0.00 54 1011.3
20260831214040 24 248 6.4 24.1 0.00 0.00 0.00 54 1011.3
20260831213941 24 311 6.4 20.9 0.00 0.00 0.00 55 1011.3
20260831213837 23 224 6.4 20.9 0.00 0.00 0.00 56 1011.3
20260831213736 23 277 8.0 20.9 0.00 0.00 0.00 56 1011.4
20260831213636 23 235 8.0 20.9 0.00 0.00 0.00 55 1011.4
20260831213536 23 203 8.0 20.9 0.00 0.00 0.00 55 1011.4
20260831213436 23 200 6.4 20.9 0.00 0.00 0.00 55 1011.4
20260831213331 23 250 6.4 20.9 0.00 0.00 0.00 55 1011.4
20260831213230 23 248 6.4 19.3 0.00 0.00 0.00 55 1011.4
20260831213130 23 262 6.4 20.9 0.00 0.00 0.00 55 1011.4
20260831213031 23 242 6.4 20.9 0.00 0.00 0.00 55 1011.4
20260831212929 23 284 8.0 20.9 0.00 0.00 0.00 54 1011.4
20260831212823 23 236 6.4 20.9 0.00 0.00 0.00 54 1011.4
20260831212722 23 262 6.4 20.9 0.00 0.00 0.00 54 1011.4
20260831212623 23 270 8.0 20.9 0.00 0.00 0.00 56 1011.4
20260831212523 23 230 8.0 22.5 0.00 0.00 0.00 56 1011.5
20260831212423 23 229 9.7 22.5 0.00 0.00 0.00 55 1011.4
20260831212318 23 239 9.7 22.5 0.00 0.00 0.00 55 1011.5
20260831212216 23 246 8.0 22.5 0.00 0.00 0.00 54 1011.5
20260831212117 23 263 8.0 22.5 0.00 0.00 0.00 55 1011.5
20260831212017 23 240 6.4 22.5 0.00 0.00 0.00 54 1011.5
20260831211931 23 218 6.4 22.5 0.00 0.00 0.00 54 1011.5
20260831211810 23 246 8.0 22.5 0.00 0.00 0.00 55 1011.5
20260831211711 23 170 8.0 22.5 0.00 0.00 0.00 54 1011.5
20260831211611 23 268 8.0 22.5 0.00 0.00 0.00 54 1011.5
20260831211512 23 229 6.4 20.9 0.00 0.00 0.00 55 1011.5
20260831211412 23 218 6.4 20.9 0.00 0.00 0.00 55 1011.4
20260831211306 23 235 8.0 20.9 0.00 0.00 0.00 55 1011.5
20260831211206 23 229 8.0 20.9 0.00 0.00 0.00 55 1011.5
20260831211106 23 238 8.0 20.9 0.00 0.00 0.00 54 1011.5
20260831211006 23 253 8.0 20.9 0.00 0.00 0.00 52 1011.5
20260831210904 23 233 8.0 20.9 0.00 0.00 0.00 52 1011.5
20260831210759 23 219 8.0 20.9 0.00 0.00 0.00 52 1011.5
20260831210700 23 259 8.0 20.9 0.00 0.00 0.00 51 1011.6
20260831210559 23 228 8.0 20.9 0.00 0.00 0.00 52 1011.6
20260831210458 23 260 8.0 17.7 0.00 0.00 0.00 53 1011.5
20260831210412 23 229 8.0 17.7 0.00 0.00 0.00 53 1011.5
20260831210255 23 163 6.4 17.7 0.00 0.00 0.00 54 1011.5
20260831210154 23 233 6.4 17.7 0.00 0.00 0.00 54 1011.5
20260831210055 23 222 8.0 17.7 0.00 0.00 0.00 53 1011.6
20260831205955 23 130 8.0 17.7 0.00 0.00 0.00 53 1011.6
20260831205853 23 248 8.0 19.3 0.00 0.00 0.00 53 1011.6
20260831205833 23 296 6.4 19.3 0.00 0.00 0.00 54 1011.5
20260831205748 23 219 8.0 19.3 0.00 0.00 0.00 53 1011.6
20260831205722 23 236 6.4 19.3 0.00 0.00 0.00 52 1011.6
20260831205546 23 241 6.4 19.3 0.00 0.00 0.00 53 1011.6
20260831205503 23 287 6.4 19.3 0.00 0.00 0.00 55 1011.5
20260831205452 23 296 6.4 19.3 0.00 0.00 0.00 54 1011.5
20260831205241 23 233 6.4 19.3 0.00 0.00 0.00 54 1011.5
20260831205140 23 240 6.4 19.3 0.00 0.00 0.00 53 1011.6
20260831205040 23 224 6.4 19.3 0.00 0.00 0.00 54 1011.6
20260831204940 23 250 6.4 19.3 0.00 0.00 0.00 54 1011.6
20260831204842 23 211 6.4 14.5 0.00 0.00 0.00 55 1011.6
20260831204736 23 255 6.4 14.5 0.00 0.00 0.00 55 1011.6
20260831204635 23 236 8.0 16.1 0.00 0.00 0.00 55 1011.6
20260831204552 23 243 8.0 16.1 0.00 0.00 0.00 54 1011.6
20260831204534 23 236 8.0 16.1 0.00 0.00 0.00 55 1011.6
20260831204450 23 222 8.0 16.1 0.00 0.00 0.00 54 1011.6
20260831204440 23 243 8.0 16.1 0.00 0.00 0.00 54 1011.6
20260831204231 23 215 8.0 16.1 0.00 0.00 0.00 53 1011.6
20260831204128 23 222 8.0 19.3 0.00 0.00 0.00 53 1011.6
20260831204048 23 221 6.4 19.3 0.00 0.00 0.00 54 1011.5
20260831204029 23 193 8.0 19.3 0.00 0.00 0.00 53 1011.6
20260831203944 23 217 6.4 19.3 0.00 0.00 0.00 53 1011.6
20260831203934 23 221 6.4 19.3 0.00 0.00 0.00 54 1011.5
20260831203724 23 215 6.4 19.3 0.00 0.00 0.00 53 1011.6
20260831203625 23 281 6.4 19.3 0.00 0.00 0.00 54 1011.6
20260831203525 23 226 6.4 19.3 0.00 0.00 0.00 54 1011.6
20260831203425 23 224 6.4 19.3 0.00 0.00 0.00 54 1011.5
20260831203324 23 232 6.4 19.3 0.00 0.00 0.00 53 1011.6
20260831203216 23 236 6.4 17.7 0.00 0.00 0.00 54 1011.7
20260831203117 23 214 4.8 16.1 0.00 0.00 0.00 54 1011.7
20260831203036 23 221 4.8 16.1 0.00 0.00 0.00 55 1011.7
20260831203016 23 262 4.8 16.1 0.00 0.00 0.00 54 1011.6
20260831202932 23 237 4.8 16.1 0.00 0.00 0.00 55 1011.6
20260831202922 23 221 4.8 16.1 0.00 0.00 0.00 55 1011.7
20260831202711 23 239 4.8 16.1 0.00 0.00 0.00 55 1011.7
20260831202611 23 256 6.4 16.1 0.00 0.00 0.00 54 1011.7
20260831202510 23 170 6.4 16.1 0.00 0.00 0.00 54 1011.7
20260831202411 23 263 6.4 16.1 0.00 0.00 0.00 56 1011.7
20260831202311 23 243 6.4 16.1 0.00 0.00 0.00 56 1011.7
20260831202204 23 252 6.4 16.1 0.00 0.00 0.00 57 1011.7
20260831202104 22 221 6.4 16.1 0.00 0.00 0.00 56 1011.7
20260831202006 22 256 6.4 16.1 0.00 0.00 0.00 55 1011.7
20260831201904 22 243 6.4 16.1 0.00 0.00 0.00 55 1011.7
20260831201805 22 160 6.4 16.1 0.00 0.00 0.00 54 1011.8
20260831201658 22 246 6.4 16.1 0.00 0.00 0.00 54 1011.7
20260831201559 22 236 6.4 16.1 0.00 0.00 0.00 53 1011.8
20260831201458 22 211 8.0 19.3 0.00 0.00 0.00 54 1011.8
20260831201359 22 81 6.4 19.3 0.00 0.00 0.00 55 1011.8
20260831201259 22 238 8.0 19.3 0.00 0.00 0.00 56 1011.8
20260831201156 22 231 8.0 19.3 0.00 0.00 0.00 58 1011.9
20260831201056 22 275 9.7 19.3 0.00 0.00 0.00 57 1011.9
20260831200954 22 233 9.7 19.3 0.00 0.00 0.00 57 1011.8
20260831200855 22 240 8.0 19.3 0.00 0.00 0.00 57 1011.9
20260831200753 22 198 8.0 19.3 0.00 0.00 0.00 57 1011.9
20260831200646 22 239 8.0 19.3 0.00 0.00 0.00 57 1011.9
20260831200546 22 250 6.4 19.3 0.00 0.00 0.00 57 1011.8
20260831200446 22 208 6.4 17.7 0.00 0.00 0.00 57 1011.9
20260831200347 22 235 4.8 16.1 0.00 0.00 0.00 56 1011.9
20260831200247 22 225 4.8 16.1 0.00 0.00 0.00 56 1011.9
20260831200141 23 235 4.8 16.1 0.00 0.00 0.00 56 1012.0
20260831200040 23 240 3.2 14.5 0.00 0.00 0.00 56 1011.9
20260831195940 23 250 3.2 14.5 0.00 0.00 0.00 56 1011.9
20260831195840 23 221 3.2 14.5 0.00 0.00 0.00 56 1012.0
20260831195741 22 264 3.2 14.5 0.00 0.00 0.00 56 1011.9
20260831195637 22 240 3.2 14.5 0.00 0.00 0.00 57 1012.0
20260831195534 22 210 3.2 17.7 0.00 0.00 0.00 58 1012.0
20260831195435 22 250 4.8 17.7 0.00 0.00 0.00 57 1012.0
20260831195335 22 259 3.2 17.7 0.00 0.00 0.00 57 1012.0
20260831195235 22 270 4.8 17.7 0.00 0.00 0.00 58 1012.0
20260831195134 22 316 4.8 17.7 0.00 0.00 0.00 59 1012.0
20260831195032 22 187 6.4 19.3 0.00 0.00 0.00 59 1012.0
20260831194954 21 238 8.0 20.9 0.00 0.00 0.00 60 1012.1
20260831194930 22 218 6.4 20.9 0.00 0.00 0.00 60 1012.0
20260831194843 22 194 8.0 20.9 0.00 0.00 0.00 60 1012.1
20260831194833 21 238 8.0 20.9 0.00 0.00 0.00 60 1012.1
20260831194622 21 246 9.7 22.5 0.00 0.00 0.00 59 1012.1
20260831194523 21 218 9.7 22.5 0.00 0.00 0.00 60 1012.2
20260831194422 21 276 8.0 22.5 0.00 0.00 0.00 60 1012.2
20260831194322 21 224 8.0 22.5 0.00 0.00 0.00 60 1012.2
20260831194223 21 255 8.0 22.5 0.00 0.00 0.00 59 1012.2
20260831194116 21 250 8.0 22.5 0.00 0.00 0.00 60 1012.2
20260831194016 21 239 9.7 22.5 0.00 0.00 0.00 60 1012.3
20260831193917 21 250 8.0 22.5 0.00 0.00 0.00 61 1012.2
20260831193816 21 207 8.0 22.5 0.00 0.00 0.00 60 1012.3
20260831193718 21 237 6.4 22.5 0.00 0.00 0.00 60 1012.3
20260831193610 21 233 6.4 20.9 0.00 0.00 0.00 62 1012.4
20260831193511 21 219 6.4 20.9 0.00 0.00 0.00 61 1012.4
20260831193410 21 233 6.4 20.9 0.00 0.00 0.00 61 1012.4
20260831193311 21 243 8.0 24.1 0.00 0.00 0.00 61 1012.4
20260831193211 21 219 8.0 24.1 0.00 0.00 0.00 60 1012.4
20260831193105 21 232 6.4 24.1 0.00 0.00 0.00 60 1012.4
20260831193006 21 241 6.4 24.1 0.00 0.00 0.00 61 1012.4
20260831192905 21 312 6.4 24.1 0.00 0.00 0.00 61 1012.4
20260831192804 21 224 8.0 24.1 0.00 0.00 0.00 61 1012.4
20260831192705 21 325 8.0 24.1 0.00 0.00 0.00 61 1012.4
20260831192600 21 246 8.0 24.1 0.00 0.00 0.00 61 1012.5
20260831192458 21 217 8.0 24.1 0.00 0.00 0.00 61 1012.5
20260831192427 21 253 6.4 19.3 0.00 0.00 0.00 62 1012.4
20260831192358 21 214 6.4 24.1 0.00 0.00 0.00 60 1012.4
20260831192316 21 229 6.4 19.3 0.00 0.00 0.00 61 1012.4
20260831192158 21 264 6.4 19.3 0.00 0.00 0.00 62 1012.4
20260831192055 21 235 8.0 19.3 0.00 0.00 0.00 62 1012.4
20260831191952 21 236 9.7 24.1 0.00 0.00 0.00 62 1012.5
20260831191853 21 226 9.7 24.1 0.00 0.00 0.00 62 1012.5
20260831191752 21 259 8.0 24.1 0.00 0.00 0.00 62 1012.5
20260831191705 21 246 9.7 24.1 0.00 0.00 0.00 63 1012.5
20260831191653 21 253 9.7 24.1 0.00 0.00 0.00 63 1012.5
20260831191546 21 264 9.7 24.1 0.00 0.00 0.00 63 1012.5
20260831191446 20 232 9.7 24.1 0.00 0.00 0.00 63 1012.4
20260831191347 20 239 9.7 24.1 0.00 0.00 0.00 63 1012.4
20260831191246 20 238 9.7 24.1 0.00 0.00 0.00 62 1012.4
20260831191206 20 224 8.0 24.1 0.00 0.00 0.00 62 1012.5
20260831191145 20 223 8.0 24.1 0.00 0.00 0.00 62 1012.5
20260831191042 21 232 8.0 24.1 0.00 0.00 0.00 62 1012.5
20260831190943 21 271 6.4 20.9 0.00 0.00 0.00 62 1012.5
20260831190842 21 222 6.4 20.9 0.00 0.00 0.00 62 1012.5
20260831190743 21 231 6.4 20.9 0.00 0.00 0.00 62 1012.4
20260831190705 21 240 6.4 20.9 0.00 0.00 0.00 62 1012.5
20260831190640 21 233 6.4 20.9 0.00 0.00 0.00 62 1012.5
20260831190534 21 295 6.4 20.9 0.00 0.00 0.00 63 1012.5
20260831190435 21 267 8.0 24.1 0.00 0.00 0.00 63 1012.5
20260831190426 20 211 8.0 24.1 0.00 0.00 0.00 63 1012.5
20260831190335 21 273 8.0 24.1 0.00 0.00 0.00 63 1012.5
20260831190316 21 225 6.4 24.1 0.00 0.00 0.00 64 1012.5
20260831190134 20 245 8.0 24.1 0.00 0.00 0.00 63 1012.5
20260831190028 20 289 8.0 24.1 0.00 0.00 0.00 63 1012.5
20260831185928 20 230 8.0 24.1 0.00 0.00 0.00 64 1012.5
20260831185829 20 250 8.0 24.1 0.00 0.00 0.00 64 1012.5
20260831185728 20 280 9.7 24.1 0.00 0.00 0.00 64 1012.5
20260831185710 20 222 9.7 24.1 0.00 0.00 0.00 64 1012.5
20260831185630 20 221 9.7 24.1 0.00 0.00 0.00 63 1012.5
20260831185524 20 239 9.7 24.1 0.00 0.00 0.00 63 1012.6
20260831185423 20 182 9.7 24.1 0.00 0.00 0.00 64 1012.6
20260831185323 20 286 9.7 24.1 0.00 0.00 0.00 64 1012.5
20260831185222 20 248 11.3 24.1 0.00 0.00 0.00 64 1012.5
20260831185206 20 291 11.3 24.1 0.00 0.00 0.00 64 1012.6
20260831185123 20 254 11.3 24.1 0.00 0.00 0.00 64 1012.6
20260831185016 20 291 11.3 24.1 0.00 0.00 0.00 64 1012.5
20260831184917 20 170 11.3 24.1 0.00 0.00 0.00 63 1012.5
20260831184816 20 218 11.3 24.1 0.00 0.00 0.00 64 1012.5
20260831184716 20 215 9.7 24.1 0.00 0.00 0.00 64 1012.6
20260831184704 20 257 11.3 24.1 0.00 0.00 0.00 64 1012.5
20260831184615 20 187 11.3 24.1 0.00 0.00 0.00 64 1012.5
20260831184510 20 231 9.7 24.1 0.00 0.00 0.00 64 1012.6
20260831184426 20 242 8.0 24.1 0.00 0.00 0.00 64 1012.6
20260831184411 20 224 9.7 24.1 0.00 0.00 0.00 64 1012.5
20260831184318 20 225 9.7 24.1 0.00 0.00 0.00 64 1012.5
20260831184310 20 253 8.0 24.1 0.00 0.00 0.00 64 1012.6
20260831184110 20 253 8.0 24.1 0.00 0.00 0.00 63 1012.5
20260831184006 20 243 8.0 19.3 0.00 0.00 0.00 64 1012.5
20260831183904 20 221 6.4 20.9 0.00 0.00 0.00 64 1012.5
20260831183804 20 192 6.4 20.9 0.00 0.00 0.00 63 1012.5
20260831183710 20 253 6.4 20.9 0.00 0.00 0.00 63 1012.5
20260831183704 20 246 6.4 20.9 0.00 0.00 0.00 63 1012.5
20260831183604 20 224 4.8 20.9 0.00 0.00 0.00 64 1012.5
20260831183500 20 186 6.4 20.9 0.00 0.00 0.00 64 1012.5
20260831183401 20 259 6.4 20.9 0.00 0.00 0.00 65 1012.5
20260831183300 20 292 6.4 20.9 0.00 0.00 0.00 65 1012.4
20260831183206 20 291 6.4 20.9 0.00 0.00 0.00 66 1012.5
20260831183200 20 291 6.4 20.9 0.00 0.00 0.00 66 1012.5
20260831183058 20 226 8.0 20.9 0.00 0.00 0.00 66 1012.5
20260831182955 19 253 8.0 20.9 0.00 0.00 0.00 66 1012.5
20260831182853 19 294 9.7 25.7 0.00 0.00 0.00 67 1012.5
20260831182752 19 224 9.7 25.7 0.00 0.00 0.00 66 1012.5
20260831182704 19 204 9.7 25.7 0.00 0.00 0.00 67 1012.5
20260831182653 19 229 9.7 25.7 0.00 0.00 0.00 67 1012.5
20260831182552 19 183 9.7 25.7 0.00 0.00 0.00 67 1012.5
20260831182453 19 260 9.7 25.7 0.00 0.00 0.00 67 1012.5
20260831182350 19 214 9.7 25.7 0.00 0.00 0.00 66 1012.5
20260831182250 19 256 9.7 25.7 0.00 0.00 0.00 67 1012.4
20260831182203 19 246 9.7 25.7 0.00 0.00 0.00 67 1012.5
20260831182148 19 250 9.7 25.7 0.00 0.00 0.00 67 1012.5
20260831182049 19 219 9.7 25.7 0.00 0.00 0.00 67 1012.5
20260831181948 19 235 8.0 25.7 0.00 0.00 0.00 66 1012.5
20260831181927 19 238 8.0 20.9 0.00 0.00 0.00 67 1012.6
20260831181849 19 242 8.0 24.1 0.00 0.00 0.00 66 1012.5
20260831181814 19 300 6.4 24.1 0.00 0.00 0.00 67 1012.6
20260831181647 19 229 8.0 20.9 0.00 0.00 0.00 68 1012.6
20260831181547 19 266 8.0 20.9 0.00 0.00 0.00 68 1012.6
20260831181444 19 226 6.4 20.9 0.00 0.00 0.00 68 1012.6
20260831181344 19 232 6.4 20.9 0.00 0.00 0.00 68 1012.6
20260831181245 19 223 8.0 20.9 0.00 0.00 0.00 67 1012.7
20260831181204 19 248 6.4 20.9 0.00 0.00 0.00 67 1012.6
20260831181145 19 226 6.4 20.9 0.00 0.00 0.00 67 1012.6
20260831181045 19 245 6.4 20.9 0.00 0.00 0.00 68 1012.7
20260831180945 19 229 6.4 20.9 0.00 0.00 0.00 68 1012.7
20260831180843 19 221 8.0 20.9 0.00 0.00 0.00 68 1012.7
20260831180741 18 233 8.0 20.9 0.00 0.00 0.00 68 1012.7
20260831180702 18 243 6.4 20.9 0.00 0.00 0.00 68 1012.7
20260831180640 18 243 6.4 20.9 0.00 0.00 0.00 68 1012.7
20260831180541 18 238 6.4 19.3 0.00 0.00 0.00 68 1012.6
20260831180440 18 248 8.0 19.3 0.00 0.00 0.00 68 1012.6
20260831180338 18 214 8.0 19.3 0.00 0.00 0.00 67 1012.7
20260831180234 19 253 6.4 19.3 0.00 0.00 0.00 67 1012.6
20260831180157 19 239 6.4 17.7 0.00 0.00 0.00 68 1012.7
20260831180133 19 250 6.4 17.7 0.00 0.00 0.00 68 1012.7
20260831180033 19 239 6.4 17.7 0.00 0.00 0.00 68 1012.7
20260831175933 19 253 6.4 19.3 0.00 0.00 0.00 67 1012.7
20260831175832 19 229 6.4 19.3 0.00 0.00 0.00 68 1012.7
20260831175726 18 235 6.4 19.3 0.00 0.00 0.00 68 1012.6
20260831175652 18 290 6.4 19.3 0.00 0.00 0.00 68 1012.7
20260831175628 18 208 6.4 19.3 0.00 0.00 0.00 68 1012.7
20260831175527 18 266 8.0 19.3 0.00 0.00 0.00 68 1012.6
20260831175426 18 277 8.0 19.3 0.00 0.00 0.00 68 1012.7
20260831175326 18 276 8.0 19.3 0.00 0.00 0.00 68 1012.6
20260831175222 18 243 8.0 20.9 0.00 0.00 0.00 69 1012.7
20260831175145 18 227 8.0 20.9 0.00 0.00 0.00 69 1012.6
20260831175121 18 217 8.0 20.9 0.00 0.00 0.00 69 1012.6
20260831175021 18 240 8.0 20.9 0.00 0.00 0.00 69 1012.6
20260831174920 18 242 8.0 20.9 0.00 0.00 0.00 69 1012.6
20260831174820 18 248 8.0 20.9 0.00 0.00 0.00 69 1012.5
20260831174715 18 221 8.0 20.9 0.00 0.00 0.00 69 1012.5
20260831174639 18 205 6.4 20.9 0.00 0.00 0.00 69 1012.5
20260831174615 18 253 6.4 20.9 0.00 0.00 0.00 69 1012.5
20260831174515 18 217 6.4 20.9 0.00 0.00 0.00 70 1012.5
20260831174415 18 228 6.4 20.9 0.00 0.00 0.00 70 1012.5
20260831174314 18 256 6.4 20.9 0.00 0.00 0.00 70 1012.5
20260831174208 18 232 6.4 19.3 0.00 0.00 0.00 70 1012.4
20260831174133 18 201 6.4 19.3 0.00 0.00 0.00 70 1012.4
20260831174108 18 238 6.4 19.3 0.00 0.00 0.00 70 1012.5
20260831174009 18 281 8.0 20.9 0.00 0.00 0.00 70 1012.4
20260831173908 18 236 8.0 24.1 0.00 0.00 0.00 70 1012.5
20260831173852 18 278 9.7 24.1 0.00 0.00 0.00 71 1012.5
20260831173809 18 233 8.0 24.1 0.00 0.00 0.00 70 1012.5
20260831173741 18 311 9.7 24.1 0.00 0.00 0.00 70 1012.5
20260831173602 18 256 9.7 24.1 0.00 0.00 0.00 71 1012.5
20260831173505 18 287 9.7 24.1 0.00 0.00 0.00 71 1012.5
20260831173402 18 235 9.7 24.1 0.00 0.00 0.00 71 1012.5
20260831173301 18 256 9.7 24.1 0.00 0.00 0.00 71 1012.5
20260831173156 18 264 9.7 24.1 0.00 0.00 0.00 71 1012.6
20260831173121 18 249 9.7 24.1 0.00 0.00 0.00 70 1012.6
20260831173056 18 242 8.0 24.1 0.00 0.00 0.00 70 1012.6
20260831172957 18 208 8.0 24.1 0.00 0.00 0.00 71 1012.5
20260831172856 18 225 6.4 16.1 0.00 0.00 0.00 71 1012.5
20260831172756 18 267 8.0 17.7 0.00 0.00 0.00 71 1012.5
20260831172650 18 222 6.4 17.7 0.00 0.00 0.00 72 1012.5
20260831172615 18 217 6.4 17.7 0.00 0.00 0.00 72 1012.6
20260831172550 18 225 6.4 17.7 0.00 0.00 0.00 72 1012.6
20260831172450 18 193 6.4 17.7 0.00 0.00 0.00 72 1012.5
20260831172351 18 188 8.0 17.7 0.00 0.00 0.00 71 1012.5
20260831172250 18 250 8.0 22.5 0.00 0.00 0.00 72 1012.4
20260831172144 18 235 8.0 22.5 0.00 0.00 0.00 73 1012.4
20260831172109 18 242 9.7 22.5 0.00 0.00 0.00 73 1012.4
20260831172044 17 233 9.7 22.5 0.00 0.00 0.00 73 1012.4
20260831171945 17 257 9.7 22.5 0.00 0.00 0.00 73 1012.4
20260831171845 17 245 9.7 22.5 0.00 0.00 0.00 72 1012.4
20260831171744 17 269 9.7 22.5 0.00 0.00 0.00 73 1012.5
20260831171641 17 203 9.7 22.5 0.00 0.00 0.00 73 1012.4
20260831171603 17 225 9.7 22.5 0.00 0.00 0.00 73 1012.4
20260831171541 17 155 9.7 22.5 0.00 0.00 0.00 73 1012.4
20260831171441 17 224 9.7 22.5 0.00 0.00 0.00 73 1012.4
20260831171340 17 271 9.7 22.5 0.00 0.00 0.00 73 1012.4
20260831171238 17 256 8.0 19.3 0.00 0.00 0.00 73 1012.4
20260831171132 17 211 8.0 19.3 0.00 0.00 0.00 73 1012.4
20260831171058 17 245 6.4 19.3 0.00 0.00 0.00 73 1012.4
20260831171032 17 250 6.4 19.3 0.00 0.00 0.00 73 1012.4
20260831170932 17 257 6.4 19.3 0.00 0.00 0.00 73 1012.4
20260831170832 17 253 6.4 19.3 0.00 0.00 0.00 73 1012.4
20260831170815 17 276 6.4 19.3 0.00 0.00 0.00 74 1012.4
20260831170732 17 239 6.4 19.3 0.00 0.00 0.00 73 1012.4
20260831170705 17 256 6.4 19.3 0.00 0.00 0.00 74 1012.4
20260831170526 17 248 6.4 19.3 0.00 0.00 0.00 74 1012.4
20260831170426 17 246 8.0 19.3 0.00 0.00 0.00 74 1012.3
20260831170326 17 233 8.0 25.7 0.00 0.00 0.00 74 1012.4
20260831170225 17 226 8.0 25.7 0.00 0.00 0.00 74 1012.3
20260831170123 17 277 8.0 25.7 0.00 0.00 0.00 75 1012.4
20260831170058 17 268 8.0 25.7 0.00 0.00 0.00 74 1012.3
20260831170021 17 281 8.0 25.7 0.00 0.00 0.00 74 1012.3
20260831165921 17 298 8.0 25.7 0.00 0.00 0.00 74 1012.3
20260831165820 17 248 8.0 25.7 0.00 0.00 0.00 73 1012.4
20260831165720 17 231 6.4 25.7 0.00 0.00 0.00 74 1012.3
20260831165615 17 282 6.4 25.7 0.00 0.00 0.00 74 1012.3
20260831165539 17 226 6.4 25.7 0.00 0.00 0.00 73 1012.3
20260831165514 17 260 6.4 25.7 0.00 0.00 0.00 73 1012.3
20260831165414 17 231 6.4 25.7 0.00 0.00 0.00 72 1012.3
20260831165314 17 203 4.8 17.7 0.00 0.00 0.00 73 1012.3
20260831165255 17 245 6.4 17.7 0.00 0.00 0.00 75 1012.3
20260831165213 17 224 6.4 14.5 0.00 0.00 0.00 75 1012.2
20260831165145 17 228 6.4 17.7 0.00 0.00 0.00 75 1012.3
20260831165009 17 269 8.0 17.7 0.00 0.00 0.00 75 1012.2
20260831164908 17 235 8.0 19.3 0.00 0.00 0.00 75 1012.3
20260831164808 17 228 8.0 19.3 0.00 0.00 0.00 75 1012.2
20260831164709 17 214 8.0 19.3 0.00 0.00 0.00 75 1012.3
20260831164602 17 210 8.0 19.3 0.00 0.00 0.00 75 1012.3
20260831164527 17 245 8.0 19.3 0.00 0.00 0.00 75 1012.3
20260831164505 17 275 6.4 19.3 0.00 0.00 0.00 75 1012.3
20260831164402 17 284 6.4 19.3 0.00 0.00 0.00 76 1012.3
20260831164302 17 266 8.0 19.3 0.00 0.00 0.00 76 1012.3
20260831164202 17 245 6.4 19.3 0.00 0.00 0.00 75 1012.3
20260831164057 17 248 8.0 22.5 0.00 0.00 0.00 75 1012.3
20260831164022 17 249 8.0 22.5 0.00 0.00 0.00 75 1012.3
20260831164009 17 219 8.0 22.5 0.00 0.00 0.00 76 1012.2
20260831163957 17 246 6.4 22.5 0.00 0.00 0.00 75 1012.3
20260831163856 17 239 6.4 22.5 0.00 0.00 0.00 75 1012.3
20260831163846 17 243 6.4 22.5 0.00 0.00 0.00 75 1012.2
20260831163656 17 273 8.0 22.5 0.00 0.00 0.00 76 1012.2
20260831163626 17 262 8.0 22.5 0.00 0.00 0.00 76 1012.2
20260831163450 17 231 8.0 22.5 0.00 0.00 0.00 76 1012.2
20260831163350 17 210 9.7 22.5 0.00 0.00 0.00 77 1012.2
20260831163251 17 201 9.7 22.5 0.00 0.00 0.00 76 1012.2
20260831163150 17 264 9.7 22.5 0.00 0.00 0.00 76 1012.1
20260831163044 17 218 8.0 17.7 0.00 0.00 0.00 76 1012.2
20260831163009 17 238 8.0 17.7 0.00 0.00 0.00 76 1012.1
20260831162944 17 212 8.0 17.7 0.00 0.00 0.00 77 1012.1
20260831162845 17 232 8.0 16.1 0.00 0.00 0.00 77 1012.1
20260831162744 17 287 8.0 27.4 0.00 0.00 0.00 77 1012.1
20260831162725 17 240 6.4 27.4 0.00 0.00 0.00 77 1012.2
20260831162646 17 304 8.0 27.4 0.00 0.00 0.00 77 1012.2
20260831162616 17 260 8.0 27.4 0.00 0.00 0.00 77 1012.1
20260831162438 17 264 6.4 27.4 0.00 0.00 0.00 76 1012.2
20260831162338 17 239 6.4 27.4 0.00 0.00 0.00 76 1012.2
20260831162239 17 245 6.4 27.4 0.00 0.00 0.00 76 1012.2
20260831162218 17 231 6.4 27.4 0.00 0.00 0.00 77 1012.2
20260831162138 17 266 6.4 27.4 0.00 0.00 0.00 76 1012.2
20260831162107 17 253 6.4 27.4 0.00 0.00 0.00 77 1012.2
20260831161932 17 245 6.4 27.4 0.00 0.00 0.00 76 1012.2
20260831161832 17 249 6.4 27.4 0.00 0.00 0.00 76 1012.2
20260831161733 17 205 6.4 17.7 0.00 0.00 0.00 77 1012.2
20260831161631 17 242 6.4 17.7 0.00 0.00 0.00 77 1012.2
20260831161528 17 273 6.4 17.7 0.00 0.00 0.00 77 1012.2
20260831161451 17 222 6.4 17.7 0.00 0.00 0.00 77 1012.2
20260831161426 16 228 6.4 17.7 0.00 0.00 0.00 77 1012.2
20260831161326 16 236 6.4 17.7 0.00 0.00 0.00 77 1012.1
20260831161226 16 259 8.0 17.7 0.00 0.00 0.00 78 1012.1
20260831161126 16 218 8.0 17.7 0.00 0.00 0.00 78 1012.1
20260831161021 16 294 8.0 19.3 0.00 0.00 0.00 78 1012.2
20260831160952 16 218 8.0 19.3 0.00 0.00 0.00 78 1012.2
20260831160920 16 232 8.0 19.3 0.00 0.00 0.00 78 1012.2
20260831160820 16 232 6.4 19.3 0.00 0.00 0.00 78 1012.1
20260831160727 16 250 8.0 20.9 0.00 0.00 0.00 78 1012.2
20260831160721 16 239 6.4 19.3 0.00 0.00 0.00 79 1012.2
20260831160623 16 228 8.0 20.9 0.00 0.00 0.00 78 1012.2
20260831160615 16 219 8.0 20.9 0.00 0.00 0.00 78 1012.2
20260831160414 16 193 8.0 20.9 0.00 0.00 0.00 78 1012.2
20260831160314 16 238 6.4 20.9 0.00 0.00 0.00 79 1012.2
20260831160215 16 229 6.4 20.9 0.00 0.00 0.00 79 1012.1
20260831160114 16 235 6.4 20.9 0.00 0.00 0.00 79 1012.1
20260831160009 16 135 6.4 24.1 0.00 0.00 0.00 79 1012.1
20260831155956 16 176 6.4 24.1 0.00 0.00 0.00 79 1012.1
20260831155908 16 270 8.0 24.1 0.00 0.00 0.00 79 1012.1
20260831155808 16 249 8.0 24.1 0.00 0.00 0.00 79 1012.2
20260831155709 16 253 8.0 24.1 0.00 0.00 0.00 79 1012.2
20260831155608 16 226 8.0 24.1 0.00 0.00 0.00 79 1012.1
20260831155507 16 248 8.0 24.1 0.00 0.00 0.00 80 1012.1
20260831155452 16 225 8.0 24.1 0.00 0.00 0.00 80 1012.1
20260831155407 16 321 9.7 24.1 0.00 0.00 0.00 80 1012.1
20260831155306 16 236 9.7 24.1 0.00 0.00 0.00 80 1012.1
20260831155204 16 245 11.3 24.1 0.00 0.00 0.00 80 1012.1
20260831155105 16 232 11.3 24.1 0.00 0.00 0.00 80 1012.1
20260831155005 16 233 11.3 24.1 0.00 0.00 0.00 81 1012.1
20260831154952 16 207 11.3 24.1 0.00 0.00 0.00 81 1012.1
20260831154904 16 247 11.3 24.1 0.00 0.00 0.00 80 1012.2
20260831154805 16 218 11.3 24.1 0.00 0.00 0.00 80 1012.2
20260831154705 16 238 11.3 24.1 0.00 0.00 0.00 81 1012.1
20260831154604 16 250 11.3 24.1 0.00 0.00 0.00 81 1012.1
20260831154504 16 240 9.7 20.9 0.00 0.00 0.00 81 1012.1
20260831154451 16 276 9.7 20.9 0.00 0.00 0.00 81 1012.1
20260831154404 16 255 9.7 20.9 0.00 0.00 0.00 81 1012.1
20260831154304 16 224 9.7 20.9 0.00 0.00 0.00 81 1012.1
20260831154204 16 235 9.7 20.9 0.00 0.00 0.00 81 1012.1
20260831154105 16 231 8.0 20.9 0.00 0.00 0.00 80 1012.1
20260831154004 16 266 8.0 19.3 0.00 0.00 0.00 80 1012.1
20260831153950 16 224 8.0 19.3 0.00 0.00 0.00 80 1012.1
20260831153903 16 235 8.0 19.3 0.00 0.00 0.00 80 1012.1
20260831153759 16 201 6.4 19.3 0.00 0.00 0.00 80 1012.1
20260831153717 16 259 6.4 19.3 0.00 0.00 0.00 81 1012.1
20260831153658 16 252 6.4 19.3 0.00 0.00 0.00 81 1012.1
20260831153605 16 230 6.4 19.3 0.00 0.00 0.00 81 1012.1
20260831153556 16 233 6.4 19.3 0.00 0.00 0.00 81 1012.1
20260831153358 16 219 6.4 19.3 0.00 0.00 0.00 81 1012.1
20260831153252 16 248 6.4 19.3 0.00 0.00 0.00 81 1012.1
20260831153153 16 253 6.4 19.3 0.00 0.00 0.00 80 1012.1
20260831153054 16 248 6.4 19.3 0.00 0.00 0.00 81 1012.1
20260831152956 16 245 6.4 19.3 0.00 0.00 0.00 81 1012.1
20260831152950 16 232 6.4 19.3 0.00 0.00 0.00 81 1012.1
20260831152852 16 240 6.4 19.3 0.00 0.00 0.00 81 1012.1
20260831152750 16 218 6.4 19.3 0.00 0.00 0.00 81 1012.1
20260831152650 16 238 4.8 19.3 0.00 0.00 0.00 82 1012.1
20260831152550 15 250 6.4 19.3 0.00 0.00 0.00 82 1012.0
20260831152449 15 280 6.4 19.3 0.00 0.00 0.00 82 1012.0
20260831152345 15 231 6.4 19.3 0.00 0.00 0.00 82 1012.0
20260831152240 15 264 4.8 19.3 0.00 0.00 0.00 81 1012.0
20260831152141 15 238 4.8 16.1 0.00 0.00 0.00 82 1012.0
20260831152040 15 239 4.8 16.1 0.00 0.00 0.00 82 1012.0
20260831151948 15 264 6.4 16.1 0.00 0.00 0.00 82 1012.0
20260831151941 15 266 6.4 16.1 0.00 0.00 0.00 82 1012.0
20260831151840 15 340 6.4 17.7 0.00 0.00 0.00 82 1012.0
20260831151737 15 203 6.4 17.7 0.00 0.00 0.00 82 1012.0
20260831151635 15 236 6.4 17.7 0.00 0.00 0.00 83 1012.0
20260831151535 15 252 6.4 17.7 0.00 0.00 0.00 83 1012.0
20260831151446 15 233 8.0 17.7 0.00 0.00 0.00 83 1012.0
20260831151434 15 271 8.0 17.7 0.00 0.00 0.00 83 1012.0
20260831151333 15 221 8.0 17.7 0.00 0.00 0.00 83 1012.0
20260831151229 15 215 8.0 17.7 0.00 0.00 0.00 83 1012.0
20260831151212 15 277 6.4 17.7 0.00 0.00 0.00 83 1012.0
20260831151129 15 253 8.0 17.7 0.00 0.00 0.00 83 1012.0
20260831151056 15 223 8.0 17.7 0.00 0.00 0.00 83 1012.0
20260831150928 15 259 6.4 17.7 0.00 0.00 0.00 83 1012.0
20260831150827 15 263 6.4 17.7 0.00 0.00 0.00 83 1012.0
20260831150722 15 236 6.4 17.7 0.00 0.00 0.00 83 1011.9
20260831150625 15 238 6.4 17.7 0.00 0.00 0.00 83 1011.9
20260831150523 15 169 4.8 17.7 0.00 0.00 0.00 83 1011.9
20260831150446 15 243 4.8 17.7 0.00 0.00 0.00 83 1011.9
20260831150423 15 219 4.8 17.7 0.00 0.00 0.00 83 1011.9
20260831150322 15 245 4.8 14.5 0.00 0.00 0.00 83 1011.8
20260831150219 15 231 4.8 14.5 0.00 0.00 0.00 83 1011.8
20260831150116 15 162 3.2 14.5 0.00 0.00 0.00 84 1011.8
20260831150017 15 266 3.2 14.5 0.00 0.00 0.00 84 1011.8
20260831145946 15 231 3.2 14.5 0.00 0.00 0.00 84 1011.8
20260831145917 15 212 3.2 14.5 0.00 0.00 0.00 84 1011.8
20260831145816 15 233 3.2 14.5 0.00 0.00 0.00 84 1011.8
20260831145710 15 233 3.2 14.5 0.00 0.00 0.00 84 1011.8
20260831145611 15 218 3.2 14.5 0.00 0.00 0.00 84 1011.7
20260831145509 15 242 4.8 14.5 0.00 0.00 0.00 84 1011.7
20260831145446 15 257 4.8 12.9 0.00 0.00 0.00 84 1011.7
20260831145408 15 289 3.2 12.9 0.00 0.00 0.00 84 1011.7
20260831145309 15 235 4.8 12.9 0.00 0.00 0.00 84 1011.7
20260831145208 15 218 4.8 12.9 0.00 0.00 0.00 85 1011.7
20260831145203 15 235 3.2 12.9 0.00 0.00 0.00 84 1011.7
20260831145103 15 250 4.8 12.9 0.00 0.00 0.00 84 1011.7
20260831145054 15 233 4.8 12.9 0.00 0.00 0.00 85 1011.7
20260831144925 15 263 4.8 17.7 0.00 0.00 0.00 85 1011.6
20260831144902 15 224 4.8 12.9 0.00 0.00 0.00 85 1011.7
20260831144817 15 226 4.8 14.5 0.00 0.00 0.00 85 1011.6
20260831144658 15 238 4.8 17.7 0.00 0.00 0.00 85 1011.6
20260831144557 15 236 4.8 17.7 0.00 0.00 0.00 85 1011.6
20260831144548 15 250 4.8 17.7 0.00 0.00 0.00 85 1011.6
20260831144356 15 226 4.8 17.7 0.00 0.00 0.00 85 1011.6
20260831144255 15 256 4.8 17.7 0.00 0.00 0.00 85 1011.6
20260831144150 15 256 4.8 17.7 0.00 0.00 0.00 85 1011.6
20260831144050 15 221 4.8 17.7 0.00 0.00 0.00 85 1011.6
20260831143951 14 243 4.8 17.7 0.00 0.00 0.00 85 1011.6
20260831143936 14 245 4.8 17.7 0.00 0.00 0.00 85 1011.6
20260831143851 14 279 4.8 17.7 0.00 0.00 0.00 85 1011.6
20260831143750 14 212 4.8 17.7 0.00 0.00 0.00 85 1011.5
20260831143646 14 252 4.8 17.7 0.00 0.00 0.00 85 1011.6
20260831143544 14 321 4.8 17.7 0.00 0.00 0.00 85 1011.5
20260831143445 14 238 4.8 16.1 0.00 0.00 0.00 86 1011.5
20260831143430 14 250 4.8 16.1 0.00 0.00 0.00 86 1011.5
20260831143344 14 230 4.8 16.1 0.00 0.00 0.00 86 1011.5
20260831143244 14 212 3.2 16.1 0.00 0.00 0.00 86 1011.5
20260831143140 14 271 4.8 16.1 0.00 0.00 0.00 86 1011.5
20260831143038 14 203 4.8 16.1 0.00 0.00 0.00 86 1011.5
20260831142939 14 232 4.8 16.1 0.00 0.00 0.00 86 1011.5
20260831142925 14 221 4.8 16.1 0.00 0.00 0.00 86 1011.5
20260831142838 14 297 3.2 16.1 0.00 0.00 0.00 86 1011.5
20260831142738 14 191 3.2 14.5 0.00 0.00 0.00 86 1011.5
20260831142647 14 232 4.8 16.1 0.00 0.00 0.00 86 1011.5
20260831142640 14 250 3.2 14.5 0.00 0.00 0.00 86 1011.5
20260831142536 14 231 3.2 14.5 0.00 0.00 0.00 86 1011.4
20260831142524 14 267 4.8 14.5 0.00 0.00 0.00 86 1011.5
20260831142335 14 245 4.8 20.9 0.00 0.00 0.00 86 1011.5
20260831142232 14 293 4.8 20.9 0.00 0.00 0.00 86 1011.4
20260831142128 14 250 6.4 20.9 0.00 0.00 0.00 86 1011.4
20260831142026 14 284 6.4 20.9 0.00 0.00 0.00 86 1011.4
20260831141926 14 291 6.4 20.9 0.00 0.00 0.00 87 1011.4
20260831141913 14 203 6.4 20.9 0.00 0.00 0.00 87 1011.4
20260831141826 14 256 6.4 20.9 0.00 0.00 0.00 86 1011.4
20260831141726 14 266 6.4 20.9 0.00 0.00 0.00 87 1011.4
20260831141621 14 280 6.4 20.9 0.00 0.00 0.00 87 1011.4
20260831141520 14 300 8.0 20.9 0.00 0.00 0.00 87 1011.3
20260831141421 14 231 8.0 20.9 0.00 0.00 0.00 87 1011.4
20260831141406 14 235 6.4 20.9 0.00 0.00 0.00 87 1011.3
20260831141320 14 243 6.4 16.1 0.00 0.00 0.00 87 1011.3
20260831141220 14 236 6.4 16.1 0.00 0.00 0.00 87 1011.3
20260831141116 14 240 6.4 16.1 0.00 0.00 0.00 87 1011.3
20260831141014 14 214 6.4 16.1 0.00 0.00 0.00 87 1011.3
20260831140914 14 224 4.8 16.1 0.00 0.00 0.00 87 1011.3
20260831140900 14 245 4.8 16.1 0.00 0.00 0.00 87 1011.2
20260831140815 14 243 4.8 16.1 0.00 0.00 0.00 87 1011.2
20260831140714 13 219 4.8 16.1 0.00 0.00 0.00 87 1011.2
20260831140626 13 259 3.2 14.5 0.00 0.00 0.00 87 1011.1
20260831140609 13 233 4.8 16.1 0.00 0.00 0.00 87 1011.2
20260831140508 13 256 4.8 16.1 0.00 0.00 0.00 87 1011.2
20260831140440 13 222 3.2 14.5 0.00 0.00 0.00 87 1011.1
20260831140308 13 226 3.2 14.5 0.00 0.00 0.00 87 1011.1
20260831140208 13 271 3.2 16.1 0.00 0.00 0.00 87 1011.1
20260831140105 13 233 3.2 16.1 0.00 0.00 0.00 87 1011.1
20260831140004 13 240 3.2 16.1 0.00 0.00 0.00 87 1011.0
20260831135902 13 262 3.2 16.1 0.00 0.00 0.00 87 1011.0
20260831135848 13 226 3.2 16.1 0.00 0.00 0.00 87 1011.0
20260831135803 13 228 3.2 16.1 0.00 0.00 0.00 87 1011.0
20260831135702 13 231 3.2 16.1 0.00 0.00 0.00 87 1011.0
20260831135559 13 238 3.2 16.1 0.00 0.00 0.00 87 1011.0
20260831135459 13 248 3.2 16.1 0.00 0.00 0.00 87 1011.0
20260831135358 13 267 3.2 16.1 0.00 0.00 0.00 87 1011.0
20260831135342 13 231 3.2 16.1 0.00 0.00 0.00 87 1011.0
20260831135259 13 217 4.8 16.1 0.00 0.00 0.00 87 1011.0
20260831135156 13 271 4.8 14.5 0.00 0.00 0.00 87 1011.0
20260831135053 13 253 4.8 14.5 0.00 0.00 0.00 87 1011.0
20260831134950 13 234 3.2 14.5 0.00 0.00 0.00 87 1011.0
20260831134850 13 243 3.2 14.5 0.00 0.00 0.00 87 1011.0
20260831134836 13 232 3.2 14.5 0.00 0.00 0.00 87 1011.0
20260831134750 13 301 3.2 14.5 0.00 0.00 0.00 87 1010.9
20260831134649 13 242 3.2 14.5 0.00 0.00 0.00 87 1011.0
20260831134545 13 248 3.2 14.5 0.00 0.00 0.00 87 1011.0
20260831134444 13 250 3.2 14.5 0.00 0.00 0.00 87 1011.0
20260831134329 13 250 3.2 14.5 0.00 0.00 0.00 87 1010.9
20260831134244 13 274 3.2 14.5 0.00 0.00 0.00 87 1010.9
20260831134144 13 236 3.2 12.9 0.00 0.00 0.00 87 1010.9
20260831134042 13 217 3.2 12.9 0.00 0.00 0.00 87 1011.0
20260831133942 13 226 3.2 12.9 0.00 0.00 0.00 87 1010.9
20260831133824 13 232 3.2 12.9 0.00 0.00 0.00 87 1010.9
20260831133740 13 232 3.2 12.9 0.00 0.00 0.00 87 1010.9
20260831133639 13 253 3.2 12.9 0.00 0.00 0.00 87 1010.9
20260831133535 13 263 3.2 12.9 0.00 0.00 0.00 87 1010.8
20260831133432 13 264 3.2 12.9 0.00 0.00 0.00 87 1010.8
20260831133333 13 305 3.2 11.3 0.00 0.00 0.00 87 1010.8
20260831133318 13 263 3.2 11.3 0.00 0.00 0.00 87 1010.8
20260831133232 13 259 3.2 11.3 0.00 0.00 0.00 87 1010.8
20260831133132 13 259 3.2 11.3 0.00 0.00 0.00 87 1010.8
20260831133026 13 222 3.2 14.5 0.00 0.00 0.00 87 1010.8
20260831132927 13 253 3.2 14.5 0.00 0.00 0.00 87 1010.8
20260831132826 13 270 3.2 14.5 0.00 0.00 0.00 87 1010.8
20260831132813 13 231 3.2 14.5 0.00 0.00 0.00 87 1010.8
20260831132726 13 263 3.2 14.5 0.00 0.00 0.00 87 1010.8
20260831132626 13 228 3.2 14.5 0.00 0.00 0.00 87 1010.7
20260831132523 13 222 4.8 14.5 0.00 0.00 0.00 87 1010.8
20260831132423 13 297 4.8 14.5 0.00 0.00 0.00 87 1010.8
20260831132322 13 246 4.8 14.5 0.00 0.00 0.00 87 1010.7
20260831132307 13 232 4.8 14.5 0.00 0.00 0.00 87 1010.8
20260831132222 13 242 4.8 14.5 0.00 0.00 0.00 87 1010.8
20260831132120 13 259 4.8 14.5 0.00 0.00 0.00 87 1010.7
20260831132016 13 204 4.8 14.5 0.00 0.00 0.00 87 1010.8
20260831131914 13 250 4.8 14.5 0.00 0.00 0.00 87 1010.8
20260831131814 13 248 4.8 14.5 0.00 0.00 0.00 87 1010.7
20260831131800 13 241 4.8 14.5 0.00 0.00 0.00 87 1010.8
20260831131715 13 244 4.8 14.5 0.00 0.00 0.00 87 1010.8
20260831131618 13 255 4.8 14.5 0.00 0.00 0.00 87 1010.8
20260831131517 13 241 4.8 14.5 0.00 0.00 0.00 87 1010.8
20260831131508 13 246 4.8 14.5 0.00 0.00 0.00 87 1010.8
20260831131409 13 212 4.8 14.5 0.00 0.00 0.00 87 1010.8
20260831131400 13 259 4.8 14.5 0.00 0.00 0.00 87 1010.8
20260831131208 13 225 4.8 14.5 0.00 0.00 0.00 87 1010.7
20260831131108 13 217 4.8 14.5 0.00 0.00 0.00 87 1010.7
20260831131006 13 273 4.8 17.7 0.00 0.00 0.00 87 1010.8
20260831130907 13 233 4.8 17.7 0.00 0.00 0.00 87 1010.8
20260831130806 13 231 4.8 17.7 0.00 0.00 0.00 87 1010.8
20260831130748 13 232 4.8 17.7 0.00 0.00 0.00 87 1010.8
20260831130704 13 286 4.8 17.7 0.00 0.00 0.00 86 1010.7
20260831130602 13 245 4.8 17.7 0.00 0.00 0.00 86 1010.7
20260831130456 13 245 4.8 17.7 0.00 0.00 0.00 86 1010.7
20260831130357 13 243 6.4 17.7 0.00 0.00 0.00 87 1010.6
20260831130256 13 257 4.8 17.7 0.00 0.00 0.00 87 1010.6
20260831130241 13 226 4.8 17.7 0.00 0.00 0.00 87 1010.6
20260831130156 13 228 4.8 17.7 0.00 0.00 0.00 87 1010.7
20260831130056 13 239 4.8 17.7 0.00 0.00 0.00 87 1010.7
20260831125950 13 267 3.2 12.9 0.00 0.00 0.00 87 1010.7
20260831125851 13 240 3.2 12.9 0.00 0.00 0.00 87 1010.7
20260831125750 13 287 3.2 12.9 0.00 0.00 0.00 87 1010.7
20260831125736 13 260 3.2 12.9 0.00 0.00 0.00 87 1010.7
20260831125650 13 193 3.2 12.9 0.00 0.00 0.00 87 1010.7
20260831125550 13 236 3.2 12.9 0.00 0.00 0.00 87 1010.6
20260831125449 13 240 3.2 12.9 0.00 0.00 0.00 87 1010.6
20260831125349 13 243 3.2 9.7 0.00 0.00 0.00 86 1010.6
20260831125248 13 229 3.2 11.3 0.00 0.00 0.00 86 1010.6
20260831125230 13 203 3.2 11.3 0.00 0.00 0.00 86 1010.6
20260831125147 13 239 3.2 11.3 0.00 0.00 0.00 86 1010.6
20260831125043 13 233 3.2 11.3 0.00 0.00 0.00 86 1010.6
20260831124941 13 233 3.2 11.3 0.00 0.00 0.00 86 1010.6
20260831124838 13 235 3.2 11.3 0.00 0.00 0.00 86 1010.6
20260831124738 13 266 3.2 11.3 0.00 0.00 0.00 86 1010.6
20260831124724 13 217 3.2 11.3 0.00 0.00 0.00 86 1010.6
20260831124639 13 290 3.2 11.3 0.00 0.00 0.00 86 1010.6
20260831124538 13 243 3.2 11.3 0.00 0.00 0.00 86 1010.6
20260831124442 13 260 1.6 9.7 0.00 0.00 0.00 86 1010.5
20260831124437 13 243 3.2 11.3 0.00 0.00 0.00 86 1010.5
20260831124337 13 236 3.2 11.3 0.00 0.00 0.00 86 1010.5
20260831124324 13 248 1.6 9.7 0.00 0.00 0.00 86 1010.5
20260831124134 13 239 1.6 6.4 0.00 0.00 0.00 86 1010.5
20260831124031 13 236 1.6 4.8 0.00 0.00 0.00 86 1010.5
20260831123933 13 238 1.6 6.4 0.00 0.00 0.00 86 1010.5
20260831123830 14 236 1.6 6.4 0.00 0.00 0.00 86 1010.4
20260831123712 14 236 1.6 6.4 0.00 0.00 0.00 86 1010.4
20260831123628 14 243 1.6 8.0 0.00 0.00 0.00 86 1010.4
20260831123526 14 231 1.6 8.0 0.00 0.00 0.00 86 1010.4
20260831123420 14 239 3.2 8.0 0.00 0.00 0.00 86 1010.4
20260831123320 14 233 3.2 11.3 0.00 0.00 0.00 86 1010.3
20260831123206 14 233 3.2 11.3 0.00 0.00 0.00 86 1010.3
20260831123121 14 233 3.2 11.3 0.00 0.00 0.00 86 1010.3
20260831123020 14 231 3.2 11.3 0.00 0.00 0.00 86 1010.4
20260831122914 14 221 3.2 11.3 0.00 0.00 0.00 86 1010.4
20260831122815 14 204 3.2 11.3 0.00 0.00 0.00 86 1010.4
20260831122715 14 248 3.2 11.3 0.00 0.00 0.00 86 1010.4
20260831122700 14 248 3.2 11.3 0.00 0.00 0.00 86 1010.4
20260831122615 14 263 3.2 11.3 0.00 0.00 0.00 86 1010.4
20260831122514 14 243 3.2 11.3 0.00 0.00 0.00 86 1010.4
20260831122408 14 224 3.2 11.3 0.00 0.00 0.00 86 1010.4
20260831122308 14 240 3.2 9.7 0.00 0.00 0.00 86 1010.4
20260831122208 14 243 3.2 12.9 0.00 0.00 0.00 86 1010.4
20260831122156 14 231 3.2 12.9 0.00 0.00 0.00 86 1010.4
20260831122108 14 232 3.2 12.9 0.00 0.00 0.00 85 1010.4
20260831122008 14 233 3.2 12.9 0.00 0.00 0.00 86 1010.4
20260831121902 14 239 3.2 12.9 0.00 0.00 0.00 85 1010.4
20260831121803 14 248 3.2 12.9 0.00 0.00 0.00 85 1010.3
20260831121703 14 242 3.2 12.9 0.00 0.00 0.00 85 1010.4
20260831121648 14 239 3.2 12.9 0.00 0.00 0.00 85 1010.4
20260831121603 14 257 3.2 12.9 0.00 0.00 0.00 85 1010.4
20260831121503 14 236 3.2 12.9 0.00 0.00 0.00 85 1010.4
20260831121358 14 205 3.2 12.9 0.00 0.00 0.00 85 1010.4
20260831121257 14 239 3.2 12.9 0.00 0.00 0.00 85 1010.4
20260831121142 14 236 3.2 8.0 0.00 0.00 0.00 85 1010.4
20260831121056 14 206 3.2 11.3 0.00 0.00 0.00 85 1010.4
20260831120956 14 239 3.2 14.5 0.00 0.00 0.00 85 1010.4
20260831120854 14 239 4.8 14.5 0.00 0.00 0.00 85 1010.4
20260831120755 14 219 4.8 14.5 0.00 0.00 0.00 85 1010.4
20260831120654 14 252 4.8 14.5 0.00 0.00 0.00 85 1010.4
20260831120637 14 268 4.8 14.5 0.00 0.00 0.00 85 1010.4
20260831120612 14 231 4.8 16.1 0.00 0.00 0.00 85 1010.4
20260831120552 14 224 4.8 14.5 0.00 0.00 0.00 85 1010.4
20260831120459 14 238 4.8 16.1 0.00 0.00 0.00 85 1010.4
20260831120346 14 233 6.4 16.1 0.00 0.00 0.00 85 1010.4
20260831120245 14 245 6.4 16.1 0.00 0.00 0.00 85 1010.4
20260831120236 14 255 4.8 16.1 0.00 0.00 0.00 85 1010.4
20260831120044 14 248 4.8 16.1 0.00 0.00 0.00 85 1010.3
20260831115944 14 250 4.8 16.1 0.00 0.00 0.00 85 1010.4
20260831115838 14 242 4.8 16.1 0.00 0.00 0.00 85 1010.4
20260831115738 14 242 4.8 16.1 0.00 0.00 0.00 85 1010.4
20260831115639 14 231 4.8 16.1 0.00 0.00 0.00 85 1010.4
20260831115623 14 226 4.8 16.1 0.00 0.00 0.00 85 1010.4
20260831115604 14 229 4.8 12.9 0.00 0.00 0.00 85 1010.3
20260831115539 14 218 4.8 16.1 0.00 0.00 0.00 85 1010.4
20260831115449 14 203 4.8 12.9 0.00 0.00 0.00 85 1010.4
20260831115334 14 245 4.8 12.9 0.00 0.00 0.00 85 1010.4
20260831115233 14 204 4.8 12.9 0.00 0.00 0.00 85 1010.3
20260831115224 14 229 4.8 12.9 0.00 0.00 0.00 85 1010.3
20260831115032 14 271 4.8 12.9 0.00 0.00 0.00 84 1010.3
20260831114932 14 229 4.8 12.9 0.00 0.00 0.00 85 1010.3
20260831114827 14 250 4.8 12.9 0.00 0.00 0.00 85 1010.3
20260831114726 14 238 4.8 12.9 0.00 0.00 0.00 84 1010.3
20260831114627 14 238 4.8 12.9 0.00 0.00 0.00 84 1010.3
20260831114615 14 235 4.8 12.9 0.00 0.00 0.00 84 1010.3
20260831114526 14 235 4.8 12.9 0.00 0.00 0.00 85 1010.3
20260831114426 14 262 4.8 12.9 0.00 0.00 0.00 84 1010.3
20260831114322 14 224 3.2 12.9 0.00 0.00 0.00 84 1010.3
20260831114220 14 236 3.2 12.9 0.00 0.00 0.00 85 1010.3
20260831114120 14 235 3.2 8.0 0.00 0.00 0.00 84 1010.3
20260831114106 14 236 3.2 8.0 0.00 0.00 0.00 84 1010.3
20260831114021 14 203 3.2 8.0 0.00 0.00 0.00 85 1010.3
20260831113920 14 239 3.2 8.0 0.00 0.00 0.00 85 1010.3
20260831113815 14 222 3.2 8.0 0.00 0.00 0.00 85 1010.3
20260831113714 14 219 3.2 8.0 0.00 0.00 0.00 85 1010.3
20260831113614 14 207 3.2 8.0 0.00 0.00 0.00 85 1010.3
20260831113600 14 228 3.2 8.0 0.00 0.00 0.00 85 1010.3
20260831113514 14 238 3.2 8.0 0.00 0.00 0.00 85 1010.3
20260831113413 14 236 3.2 8.0 0.00 0.00 0.00 85 1010.3
20260831113308 14 250 3.2 8.0 0.00 0.00 0.00 85 1010.2
20260831113209 14 238 1.6 8.0 0.00 0.00 0.00 85 1010.3
20260831113108 14 224 1.6 4.8 0.00 0.00 0.00 84 1010.3
20260831113054 14 146 1.6 4.8 0.00 0.00 0.00 84 1010.3